Wetterdaten: Sonntag, 24.04.2022
Datum Zeit Temp. Aussen Temp. o. S. Temp +5cm Feuchte Auss Luftdruck Regen Sonnenschein Regendauer Solar Windben Empfang
24.04.2022 00:00 14,4 C 13,9 C 10,0 C 57 % 1002,2 hPa 0,0 l/m 0 min 0 min 0 W/m 12,9 km/h (3 Bft) 97,87 %
24.04.2022 00:02 14,3 C 13,9 C 10,0 C 57 % 1002,2 hPa 0,0 l/m 0 min 0 min 0 W/m 9,7 km/h (2 Bft) 93,94 %
24.04.2022 00:04 14,3 C 13,9 C 10,0 C 58 % 1002,2 hPa 0,0 l/m 0 min 0 min 0 W/m 6,4 km/h (2 Bft) 97,87 %
24.04.2022 00:08 14,3 C 13,3 C 10,0 C 58 % 1002,2 hPa 0,0 l/m 0 min 0 min 0 W/m 12,9 km/h (3 Bft) 97,98 %
24.04.2022 00:10 14,3 C 13,3 C 10,0 C 58 % 1002,2 hPa 0,0 l/m 0 min 0 min 0 W/m 9,7 km/h (2 Bft) 95,74 %
24.04.2022 00:12 14,3 C 13,3 C 9,4 C 58 % 1002,2 hPa 0,0 l/m 0 min 0 min 0 W/m 6,4 km/h (2 Bft) 95,74 %
24.04.2022 00:14 14,3 C 13,3 C 9,4 C 58 % 1002,2 hPa 0,0 l/m 0 min 0 min 0 W/m 6,4 km/h (2 Bft) 95,74 %
24.04.2022 00:16 14,3 C 13,3 C 9,4 C 58 % 1002,2 hPa 0,0 l/m 0 min 0 min 0 W/m 6,4 km/h (2 Bft) 100,00 %
24.04.2022 00:18 14,3 C 13,3 C 9,4 C 59 % 1002,2 hPa 0,0 l/m 0 min 0 min 0 W/m 6,4 km/h (2 Bft) 97,83 %
24.04.2022 00:20 14,3 C 13,3 C 9,4 C 59 % 1002,2 hPa 0,0 l/m 0 min 0 min 0 W/m 3,2 km/h (1 Bft) 97,87 %
24.04.2022 00:22 14,3 C 13,3 C 9,4 C 58 % 1002,2 hPa 0,0 l/m 0 min 0 min 0 W/m 6,4 km/h (2 Bft) 97,87 %
24.04.2022 00:24 14,2 C 13,3 C 9,4 C 59 % 1002,2 hPa 0,0 l/m 0 min 0 min 0 W/m 3,2 km/h (1 Bft) 95,74 %
24.04.2022 00:26 14,2 C 13,3 C 9,4 C 59 % 1002,2 hPa 0,0 l/m 0 min 0 min 0 W/m 6,4 km/h (2 Bft) 97,87 %
24.04.2022 00:28 14,1 C 13,3 C 9,4 C 59 % 1002,2 hPa 0,0 l/m 0 min 0 min 0 W/m 6,4 km/h (2 Bft) 95,74 %
24.04.2022 00:30 14,1 C 13,3 C 9,4 C 59 % 1002,2 hPa 0,0 l/m 0 min 0 min 0 W/m 9,7 km/h (2 Bft) 95,65 %
24.04.2022 00:32 14,1 C 13,3 C 9,4 C 59 % 1002,2 hPa 0,0 l/m 0 min 0 min 0 W/m 6,4 km/h (2 Bft) 95,74 %
24.04.2022 00:34 14,1 C 13,3 C 9,4 C 59 % 1002,2 hPa 0,0 l/m 0 min 0 min 0 W/m 6,4 km/h (2 Bft) 95,74 %
24.04.2022 00:36 14,1 C 13,3 C 9,4 C 60 % 1002,2 hPa 0,0 l/m 0 min 0 min 0 W/m 6,4 km/h (2 Bft) 95,74 %
24.04.2022 00:38 14,0 C 13,3 C 9,4 C 59 % 1002,2 hPa 0,0 l/m 0 min 0 min 0 W/m 12,9 km/h (3 Bft) 96,23 %
24.04.2022 00:40 14,0 C 13,3 C 9,4 C 59 % 1002,2 hPa 0,0 l/m 0 min 0 min 0 W/m 6,4 km/h (2 Bft) 95,65 %
24.04.2022 00:42 13,9 C 13,3 C 9,4 C 59 % 1002,2 hPa 0,0 l/m 0 min 0 min 0 W/m 22,5 km/h (4 Bft) 95,74 %
24.04.2022 00:44 13,9 C 13,3 C 9,4 C 59 % 1002,2 hPa 0,0 l/m 0 min 0 min 0 W/m 9,7 km/h (2 Bft) 93,62 %
24.04.2022 00:46 13,9 C 13,3 C 9,4 C 59 % 1002,2 hPa 0,0 l/m 0 min 0 min 0 W/m 9,7 km/h (2 Bft) 95,12 %
24.04.2022 00:48 13,9 C 13,3 C 9,4 C 59 % 1002,2 hPa 0,0 l/m 0 min 0 min 0 W/m 6,4 km/h (2 Bft) 93,62 %
24.04.2022 00:50 13,9 C 13,3 C 9,4 C 59 % 1002,2 hPa 0,0 l/m 0 min 0 min 0 W/m 12,9 km/h (3 Bft) 97,87 %
24.04.2022 00:52 13,9 C 13,3 C 9,4 C 59 % 1002,2 hPa 0,0 l/m 0 min 0 min 0 W/m 9,7 km/h (2 Bft) 97,87 %
24.04.2022 00:54 13,9 C 13,3 C 9,4 C 59 % 1002,2 hPa 0,0 l/m 0 min 0 min 0 W/m 16,1 km/h (3 Bft) 95,65 %
24.04.2022 00:56 13,9 C 13,3 C 9,4 C 60 % 1002,2 hPa 0,0 l/m 0 min 0 min 0 W/m 6,4 km/h (2 Bft) 97,87 %
24.04.2022 00:58 13,9 C 13,3 C 9,4 C 59 % 1002,2 hPa 0,0 l/m 0 min 0 min 0 W/m 9,7 km/h (2 Bft) 95,74 %
24.04.2022 01:00 13,9 C 13,3 C 9,4 C 59 % 1002,2 hPa 0,0 l/m 0 min 0 min 0 W/m 6,4 km/h (2 Bft) 97,87 %
24.04.2022 01:02 13,9 C 13,3 C 9,4 C 60 % 1002,2 hPa 0,0 l/m 0 min 0 min 0 W/m 9,7 km/h (2 Bft) 95,74 %
24.04.2022 01:04 13,9 C 12,8 C 9,4 C 60 % 1002,2 hPa 0,0 l/m 0 min 0 min 0 W/m 12,9 km/h (3 Bft) 93,62 %
24.04.2022 01:06 13,8 C 12,8 C 9,4 C 59 % 1002,2 hPa 0,0 l/m 0 min 0 min 0 W/m 16,1 km/h (3 Bft) 94,23 %
24.04.2022 01:08 13,8 C 12,8 C 9,4 C 59 % 1002,1 hPa 0,0 l/m 0 min 0 min 0 W/m 12,9 km/h (3 Bft) 95,74 %
24.04.2022 01:10 13,8 C 12,8 C 9,4 C 59 % 1002,1 hPa 0,0 l/m 0 min 0 min 0 W/m 12,9 km/h (3 Bft) 93,62 %
24.04.2022 01:12 13,8 C 12,8 C 9,4 C 59 % 1002,2 hPa 0,0 l/m 0 min 0 min 0 W/m 9,7 km/h (2 Bft) 95,74 %
24.04.2022 01:14 13,8 C 12,8 C 9,4 C 60 % 1002,1 hPa 0,0 l/m 0 min 0 min 0 W/m 9,7 km/h (2 Bft) 95,74 %
24.04.2022 01:16 13,7 C 12,8 C 9,4 C 60 % 1002,1 hPa 0,0 l/m 0 min 0 min 0 W/m 6,4 km/h (2 Bft) 97,50 %
24.04.2022 01:18 13,7 C 12,8 C 9,4 C 60 % 1002,1 hPa 0,0 l/m 0 min 0 min 0 W/m 16,1 km/h (3 Bft) 97,87 %
24.04.2022 01:20 13,7 C 12,8 C 9,4 C 59 % 1002,0 hPa 0,0 l/m 0 min 0 min 0 W/m 16,1 km/h (3 Bft) 97,87 %
24.04.2022 01:22 13,7 C 12,8 C 9,4 C 60 % 1002,0 hPa 0,0 l/m 0 min 0 min 0 W/m 6,4 km/h (2 Bft) 97,87 %
24.04.2022 01:24 13,7 C 12,8 C 9,4 C 60 % 1002,0 hPa 0,0 l/m 0 min 0 min 0 W/m 9,7 km/h (2 Bft) 95,74 %
24.04.2022 01:26 13,6 C 12,8 C 9,4 C 60 % 1002,0 hPa 0,0 l/m 0 min 0 min 0 W/m 16,1 km/h (3 Bft) 97,87 %
24.04.2022 01:28 13,6 C 12,8 C 8,9 C 60 % 1002,0 hPa 0,0 l/m 0 min 0 min 0 W/m 12,9 km/h (3 Bft) 100,00 %
24.04.2022 01:30 13,6 C 12,8 C 8,9 C 60 % 1002,0 hPa 0,0 l/m 0 min 0 min 0 W/m 12,9 km/h (3 Bft) 97,87 %
24.04.2022 01:32 13,6 C 12,8 C 8,9 C 60 % 1002,0 hPa 0,0 l/m 0 min 0 min 0 W/m 9,7 km/h (2 Bft) 100,00 %
24.04.2022 01:34 13,6 C 12,8 C 8,9 C 61 % 1002,0 hPa 0,0 l/m 0 min 0 min 0 W/m 6,4 km/h (2 Bft) 100,00 %
24.04.2022 01:36 13,5 C 12,8 C 8,9 C 60 % 1002,0 hPa 0,0 l/m 0 min 0 min 0 W/m 9,7 km/h (2 Bft) 100,00 %
24.04.2022 01:38 13,5 C 12,8 C 8,9 C 60 % 1002,0 hPa 0,0 l/m 0 min 0 min 0 W/m 6,4 km/h (2 Bft) 100,00 %
24.04.2022 01:40 13,4 C 12,8 C 8,9 C 61 % 1002,0 hPa 0,0 l/m 0 min 0 min 0 W/m 3,2 km/h (1 Bft) 100,00 %
24.04.2022 01:42 13,4 C 12,8 C 8,9 C 61 % 1002,0 hPa 0,0 l/m 0 min 0 min 0 W/m 6,4 km/h (2 Bft) 100,00 %
24.04.2022 01:44 13,4 C 12,8 C 8,9 C 61 % 1002,0 hPa 0,0 l/m 0 min 0 min 0 W/m 9,7 km/h (2 Bft) 100,00 %
24.04.2022 01:47 13,4 C 12,8 C 8,9 C 61 % 1002,0 hPa 0,0 l/m 0 min 0 min 0 W/m 12,9 km/h (3 Bft) 98,68 %
24.04.2022 01:48 13,4 C 12,8 C 8,9 C 61 % 1002,0 hPa 0,0 l/m 0 min 0 min 0 W/m 3,2 km/h (1 Bft) 100,00 %
24.04.2022 01:50 13,3 C 12,8 C 8,9 C 61 % 1002,0 hPa 0,0 l/m 0 min 0 min 0 W/m 16,1 km/h (3 Bft) 100,00 %
24.04.2022 01:52 13,3 C 12,8 C 8,9 C 61 % 1001,9 hPa 0,0 l/m 0 min 0 min 0 W/m 6,4 km/h (2 Bft) 97,83 %
24.04.2022 01:54 13,3 C 12,8 C 8,9 C 61 % 1001,9 hPa 0,0 l/m 0 min 0 min 0 W/m 6,4 km/h (2 Bft) 100,00 %
24.04.2022 01:56 13,3 C 12,8 C 8,9 C 61 % 1002,0 hPa 0,0 l/m 0 min 0 min 0 W/m 6,4 km/h (2 Bft) 100,00 %
24.04.2022 01:58 13,3 C 12,8 C 8,9 C 61 % 1001,9 hPa 0,0 l/m 0 min 0 min 0 W/m 9,7 km/h (2 Bft) 100,00 %
24.04.2022 02:00 13,3 C 12,8 C 8,9 C 61 % 1001,9 hPa 0,0 l/m 0 min 0 min 0 W/m 9,7 km/h (2 Bft) 100,00 %
24.04.2022 02:02 13,3 C 12,8 C 8,9 C 61 % 1001,9 hPa 0,0 l/m 0 min 0 min 0 W/m 12,9 km/h (3 Bft) 100,00 %
24.04.2022 02:04 13,2 C 12,8 C 8,9 C 62 % 1001,9 hPa 0,0 l/m 0 min 0 min 0 W/m 19,3 km/h (3 Bft) 100,00 %
24.04.2022 02:06 13,2 C 12,8 C 8,9 C 61 % 1001,8 hPa 0,0 l/m 0 min 0 min 0 W/m 9,7 km/h (2 Bft) 100,00 %
24.04.2022 02:08 13,2 C 12,8 C 8,9 C 61 % 1001,8 hPa 0,0 l/m 0 min 0 min 0 W/m 19,3 km/h (3 Bft) 100,00 %
24.04.2022 02:10 13,2 C 12,8 C 8,9 C 62 % 1001,8 hPa 0,0 l/m 0 min 0 min 0 W/m 9,7 km/h (2 Bft) 100,00 %
24.04.2022 02:12 13,2 C 12,2 C 8,9 C 62 % 1001,7 hPa 0,0 l/m 0 min 0 min 0 W/m 9,7 km/h (2 Bft) 100,00 %
24.04.2022 02:14 13,2 C 12,2 C 8,9 C 62 % 1001,7 hPa 0,0 l/m 0 min 0 min 0 W/m 6,4 km/h (2 Bft) 100,00 %
24.04.2022 02:16 13,2 C 12,2 C 8,9 C 62 % 1001,7 hPa 0,0 l/m 0 min 0 min 0 W/m 6,4 km/h (2 Bft) 100,00 %
24.04.2022 02:18 13,2 C 12,2 C 8,9 C 62 % 1001,7 hPa 0,0 l/m 0 min 0 min 0 W/m 12,9 km/h (3 Bft) 100,00 %
24.04.2022 02:20 13,1 C 12,2 C 8,9 C 62 % 1001,7 hPa 0,0 l/m 0 min 0 min 0 W/m 9,7 km/h (2 Bft) 100,00 %
24.04.2022 02:22 13,1 C 12,2 C 8,9 C 62 % 1001,7 hPa 0,0 l/m 0 min 0 min 0 W/m 16,1 km/h (3 Bft) 100,00 %
24.04.2022 02:24 13,1 C 12,2 C 8,9 C 63 % 1001,7 hPa 0,0 l/m 0 min 0 min 0 W/m 9,7 km/h (2 Bft) 97,83 %
24.04.2022 02:26 13,1 C 12,2 C 8,9 C 63 % 1001,7 hPa 0,0 l/m 0 min 0 min 0 W/m 12,9 km/h (3 Bft) 100,00 %
24.04.2022 02:28 13,1 C 12,2 C 8,9 C 62 % 1001,7 hPa 0,0 l/m 0 min 0 min 0 W/m 12,9 km/h (3 Bft) 100,00 %
24.04.2022 02:30 13,1 C 12,2 C 8,9 C 63 % 1001,6 hPa 0,0 l/m 0 min 0 min 0 W/m 9,7 km/h (2 Bft) 100,00 %
24.04.2022 02:32 13,0 C 12,2 C 8,9 C 63 % 1001,6 hPa 0,0 l/m 0 min 0 min 0 W/m 9,7 km/h (2 Bft) 97,92 %
24.04.2022 02:34 13,0 C 12,2 C 8,9 C 63 % 1001,6 hPa 0,0 l/m 0 min 0 min 0 W/m 16,1 km/h (3 Bft) 100,00 %
24.04.2022 02:36 13,0 C 12,2 C 8,3 C 63 % 1001,6 hPa 0,0 l/m 0 min 0 min 0 W/m 9,7 km/h (2 Bft) 98,15 %
24.04.2022 02:38 12,9 C 12,2 C 8,3 C 63 % 1001,6 hPa 0,0 l/m 0 min 0 min 0 W/m 12,9 km/h (3 Bft) 100,00 %
24.04.2022 02:40 12,9 C 12,2 C 8,3 C 63 % 1001,6 hPa 0,0 l/m 0 min 0 min 0 W/m 12,9 km/h (3 Bft) 97,87 %
24.04.2022 02:42 12,9 C 12,2 C 8,3 C 63 % 1001,6 hPa 0,0 l/m 0 min 0 min 0 W/m 9,7 km/h (2 Bft) 97,92 %
24.04.2022 02:44 12,9 C 12,2 C 8,3 C 63 % 1001,6 hPa 0,0 l/m 0 min 0 min 0 W/m 22,5 km/h (4 Bft) 100,00 %
24.04.2022 02:46 12,9 C 12,2 C 8,3 C 63 % 1001,6 hPa 0,0 l/m 0 min 0 min 0 W/m 22,5 km/h (4 Bft) 100,00 %
24.04.2022 02:48 12,9 C 12,2 C 8,3 C 63 % 1001,5 hPa 0,0 l/m 0 min 0 min 0 W/m 9,7 km/h (2 Bft) 100,00 %
24.04.2022 02:50 12,8 C 12,2 C 8,3 C 63 % 1001,6 hPa 0,0 l/m 0 min 0 min 0 W/m 9,7 km/h (2 Bft) 97,92 %
24.04.2022 02:52 12,8 C 12,2 C 8,3 C 63 % 1001,6 hPa 0,0 l/m 0 min 0 min 0 W/m 9,7 km/h (2 Bft) 97,87 %
24.04.2022 02:54 12,8 C 11,7 C 8,3 C 63 % 1001,6 hPa 0,0 l/m 0 min 0 min 0 W/m 9,7 km/h (2 Bft) 95,74 %
24.04.2022 02:56 12,7 C 11,7 C 8,3 C 63 % 1001,6 hPa 0,0 l/m 0 min 0 min 0 W/m 12,9 km/h (3 Bft) 96,36 %
24.04.2022 02:58 12,7 C 11,7 C 8,3 C 64 % 1001,6 hPa 0,0 l/m 0 min 0 min 0 W/m 16,1 km/h (3 Bft) 94,74 %
24.04.2022 03:00 12,7 C 11,7 C 8,3 C 64 % 1001,6 hPa 0,0 l/m 0 min 0 min 0 W/m 9,7 km/h (2 Bft) 95,74 %
24.04.2022 03:02 12,6 C 11,7 C 7,8 C 64 % 1001,6 hPa 0,0 l/m 0 min 0 min 0 W/m 12,9 km/h (3 Bft) 91,49 %
24.04.2022 03:04 12,6 C 11,7 C 7,8 C 64 % 1001,6 hPa 0,0 l/m 0 min 0 min 0 W/m 9,7 km/h (2 Bft) 96,36 %
24.04.2022 03:06 12,5 C 11,7 C 7,8 C 64 % 1001,6 hPa 0,0 l/m 0 min 0 min 0 W/m 9,7 km/h (2 Bft) 91,49 %
24.04.2022 03:08 12,4 C 11,7 C 7,8 C 64 % 1001,6 hPa 0,0 l/m 0 min 0 min 0 W/m 9,7 km/h (2 Bft) 93,48 %
24.04.2022 03:10 12,4 C 11,1 C 7,8 C 64 % 1001,6 hPa 0,0 l/m 0 min 0 min 0 W/m 12,9 km/h (3 Bft) 93,62 %
24.04.2022 03:12 12,3 C 11,1 C 7,8 C 65 % 1001,5 hPa 0,0 l/m 0 min 0 min 0 W/m 9,7 km/h (2 Bft) 92,11 %
24.04.2022 03:14 12,2 C 11,1 C 7,8 C 65 % 1001,6 hPa 0,0 l/m 0 min 0 min 0 W/m 9,7 km/h (2 Bft) 93,75 %
24.04.2022 03:16 12,2 C 11,1 C 7,2 C 65 % 1001,5 hPa 0,0 l/m 0 min 0 min 0 W/m 12,9 km/h (3 Bft) 93,62 %
24.04.2022 03:18 12,1 C 11,1 C 7,2 C 66 % 1001,5 hPa 0,0 l/m 0 min 0 min 0 W/m 6,4 km/h (2 Bft) 90,91 %
24.04.2022 03:20 12,1 C 11,1 C 7,2 C 66 % 1001,5 hPa 0,0 l/m 0 min 0 min 0 W/m 6,4 km/h (2 Bft) 92,11 %
24.04.2022 03:22 11,9 C 10,6 C 7,2 C 66 % 1001,5 hPa 0,0 l/m 0 min 0 min 0 W/m 12,9 km/h (3 Bft) 93,48 %
24.04.2022 03:24 11,9 C 10,6 C 7,2 C 66 % 1001,5 hPa 0,0 l/m 0 min 0 min 0 W/m 9,7 km/h (2 Bft) 93,62 %
24.04.2022 03:26 11,8 C 10,6 C 7,2 C 66 % 1001,5 hPa 0,0 l/m 0 min 0 min 0 W/m 12,9 km/h (3 Bft) 95,83 %
24.04.2022 03:28 11,8 C 10,6 C 7,2 C 66 % 1001,5 hPa 0,0 l/m 0 min 0 min 0 W/m 6,4 km/h (2 Bft) 93,62 %
24.04.2022 03:30 11,7 C 10,6 C 7,2 C 66 % 1001,5 hPa 0,0 l/m 0 min 0 min 0 W/m 6,4 km/h (2 Bft) 95,74 %
24.04.2022 03:32 11,6 C 10,6 C 7,2 C 67 % 1001,5 hPa 0,0 l/m 0 min 0 min 0 W/m 6,4 km/h (2 Bft) 92,59 %
24.04.2022 03:34 11,6 C 10,6 C 7,2 C 67 % 1001,6 hPa 0,0 l/m 0 min 0 min 0 W/m 9,7 km/h (2 Bft) 97,37 %
24.04.2022 03:36 11,5 C 10,6 C 6,7 C 67 % 1001,5 hPa 0,0 l/m 0 min 0 min 0 W/m 9,7 km/h (2 Bft) 93,75 %
24.04.2022 03:38 11,4 C 10,6 C 6,7 C 67 % 1001,5 hPa 0,0 l/m 0 min 0 min 0 W/m 9,7 km/h (2 Bft) 95,74 %
24.04.2022 03:40 11,3 C 10,0 C 6,7 C 68 % 1001,5 hPa 0,0 l/m 0 min 0 min 0 W/m 9,7 km/h (2 Bft) 95,74 %
24.04.2022 03:42 11,3 C 10,0 C 6,7 C 68 % 1001,5 hPa 0,0 l/m 0 min 0 min 0 W/m 9,7 km/h (2 Bft) 98,18 %
24.04.2022 03:44 11,2 C 10,0 C 6,7 C 68 % 1001,5 hPa 0,0 l/m 0 min 0 min 0 W/m 12,9 km/h (3 Bft) 94,74 %
24.04.2022 03:46 11,2 C 10,0 C 6,7 C 68 % 1001,5 hPa 0,0 l/m 0 min 0 min 0 W/m 6,4 km/h (2 Bft) 95,74 %
24.04.2022 03:48 11,2 C 10,0 C 6,7 C 68 % 1001,5 hPa 0,0 l/m 0 min 0 min 0 W/m 9,7 km/h (2 Bft) 95,74 %
24.04.2022 03:50 11,1 C 10,0 C 6,7 C 68 % 1001,4 hPa 0,0 l/m 0 min 0 min 0 W/m 16,1 km/h (3 Bft) 100,00 %
24.04.2022 03:52 11,1 C 10,0 C 6,7 C 68 % 1001,5 hPa 0,0 l/m 0 min 0 min 0 W/m 12,9 km/h (3 Bft) 100,00 %
24.04.2022 03:54 11,1 C 10,0 C 6,7 C 68 % 1001,5 hPa 0,0 l/m 0 min 0 min 0 W/m 12,9 km/h (3 Bft) 100,00 %
24.04.2022 03:56 11,0 C 10,0 C 6,7 C 68 % 1001,5 hPa 0,0 l/m 0 min 0 min 0 W/m 22,5 km/h (4 Bft) 97,87 %
24.04.2022 03:58 11,0 C 10,0 C 6,7 C 68 % 1001,5 hPa 0,0 l/m 0 min 0 min 0 W/m 9,7 km/h (2 Bft) 100,00 %
24.04.2022 04:00 10,9 C 10,0 C 6,7 C 68 % 1001,5 hPa 0,0 l/m 0 min 0 min 0 W/m 19,3 km/h (3 Bft) 100,00 %
24.04.2022 04:02 10,9 C 10,0 C 6,7 C 68 % 1001,5 hPa 0,0 l/m 0 min 0 min 0 W/m 16,1 km/h (3 Bft) 91,67 %
24.04.2022 04:07 10,9 C 10,0 C 6,7 C 69 % 1001,5 hPa 0,0 l/m 0 min 0 min 0 W/m 22,5 km/h (4 Bft) 100,00 %
24.04.2022 04:08 10,9 C 10,0 C 6,7 C 69 % 1001,5 hPa 0,0 l/m 0 min 0 min 0 W/m 19,3 km/h (3 Bft) 100,00 %
24.04.2022 04:10 10,9 C 10,0 C 6,7 C 69 % 1001,5 hPa 0,0 l/m 0 min 0 min 0 W/m 12,9 km/h (3 Bft) 94,74 %
24.04.2022 04:12 10,9 C 10,0 C 6,7 C 68 % 1001,5 hPa 0,0 l/m 0 min 0 min 0 W/m 16,1 km/h (3 Bft) 100,00 %
24.04.2022 04:14 10,9 C 10,0 C 6,7 C 68 % 1001,5 hPa 0,0 l/m 0 min 0 min 0 W/m 12,9 km/h (3 Bft) 95,74 %
24.04.2022 04:16 10,8 C 10,0 C 6,7 C 69 % 1001,6 hPa 0,0 l/m 0 min 0 min 0 W/m 12,9 km/h (3 Bft) 100,00 %
24.04.2022 04:18 10,8 C 10,0 C 6,7 C 69 % 1001,5 hPa 0,0 l/m 0 min 0 min 0 W/m 12,9 km/h (3 Bft) 100,00 %
24.04.2022 04:20 10,8 C 10,0 C 6,7 C 69 % 1001,6 hPa 0,0 l/m 0 min 0 min 0 W/m 12,9 km/h (3 Bft) 100,00 %
24.04.2022 04:22 10,8 C 10,0 C 6,7 C 69 % 1001,5 hPa 0,0 l/m 0 min 0 min 0 W/m 16,1 km/h (3 Bft) 100,00 %
24.04.2022 04:24 10,8 C 10,0 C 6,7 C 69 % 1001,6 hPa 0,0 l/m 0 min 0 min 0 W/m 16,1 km/h (3 Bft) 97,92 %
24.04.2022 04:26 10,7 C 10,0 C 6,7 C 69 % 1001,5 hPa 0,0 l/m 0 min 0 min 0 W/m 16,1 km/h (3 Bft) 100,00 %
24.04.2022 04:28 10,7 C 10,0 C 6,7 C 69 % 1001,5 hPa 0,0 l/m 0 min 0 min 0 W/m 22,5 km/h (4 Bft) 100,00 %
24.04.2022 04:30 10,7 C 10,0 C 6,7 C 69 % 1001,5 hPa 0,0 l/m 0 min 0 min 0 W/m 19,3 km/h (3 Bft) 100,00 %
24.04.2022 04:32 10,7 C 10,0 C 6,7 C 69 % 1001,5 hPa 0,0 l/m 0 min 0 min 0 W/m 19,3 km/h (3 Bft) 100,00 %
24.04.2022 04:34 10,7 C 10,0 C 6,7 C 69 % 1001,5 hPa 0,0 l/m 0 min 0 min 0 W/m 19,3 km/h (3 Bft) 100,00 %
24.04.2022 04:36 10,7 C 10,0 C 6,1 C 69 % 1001,5 hPa 0,0 l/m 0 min 0 min 0 W/m 12,9 km/h (3 Bft) 97,87 %
24.04.2022 04:38 10,6 C 10,0 C 6,1 C 69 % 1001,5 hPa 0,0 l/m 0 min 0 min 0 W/m 19,3 km/h (3 Bft) 100,00 %
24.04.2022 04:40 10,6 C 10,0 C 6,1 C 69 % 1001,5 hPa 0,0 l/m 0 min 0 min 0 W/m 9,7 km/h (2 Bft) 100,00 %
24.04.2022 04:42 10,6 C 9,4 C 6,1 C 69 % 1001,5 hPa 0,0 l/m 0 min 0 min 0 W/m 12,9 km/h (3 Bft) 98,15 %
24.04.2022 04:44 10,6 C 9,4 C 6,1 C 69 % 1001,5 hPa 0,0 l/m 0 min 0 min 0 W/m 16,1 km/h (3 Bft) 97,87 %
24.04.2022 04:46 10,6 C 9,4 C 6,1 C 69 % 1001,5 hPa 0,0 l/m 0 min 0 min 0 W/m 25,7 km/h (4 Bft) 97,87 %
24.04.2022 04:48 10,5 C 9,4 C 6,1 C 70 % 1001,6 hPa 0,0 l/m 0 min 0 min 0 W/m 16,1 km/h (3 Bft) 97,37 %
24.04.2022 04:50 10,5 C 9,4 C 6,1 C 70 % 1001,5 hPa 0,0 l/m 0 min 0 min 0 W/m 9,7 km/h (2 Bft) 97,92 %
24.04.2022 04:52 10,4 C 9,4 C 6,1 C 70 % 1001,5 hPa 0,0 l/m 0 min 0 min 0 W/m 19,3 km/h (3 Bft) 97,87 %
24.04.2022 04:54 10,4 C 9,4 C 6,1 C 70 % 1001,5 hPa 0,0 l/m 0 min 0 min 0 W/m 16,1 km/h (3 Bft) 94,44 %
24.04.2022 04:56 10,4 C 9,4 C 6,1 C 70 % 1001,4 hPa 0,0 l/m 0 min 0 min 0 W/m 12,9 km/h (3 Bft) 97,87 %
24.04.2022 04:58 10,3 C 9,4 C 6,1 C 70 % 1001,4 hPa 0,0 l/m 0 min 0 min 0 W/m 16,1 km/h (3 Bft) 97,87 %
24.04.2022 05:00 10,3 C 9,4 C 6,1 C 70 % 1001,4 hPa 0,0 l/m 0 min 0 min 0 W/m 12,9 km/h (3 Bft) 97,87 %
24.04.2022 05:02 10,3 C 9,4 C 6,1 C 70 % 1001,5 hPa 0,0 l/m 0 min 0 min 0 W/m 22,5 km/h (4 Bft) 97,37 %
24.04.2022 05:04 10,3 C 9,4 C 6,1 C 70 % 1001,4 hPa 0,0 l/m 0 min 0 min 0 W/m 38,6 km/h (5 Bft) 97,92 %
24.04.2022 05:06 10,3 C 9,4 C 6,1 C 70 % 1001,4 hPa 0,0 l/m 0 min 0 min 0 W/m 16,1 km/h (3 Bft) 100,00 %
24.04.2022 05:08 10,2 C 9,4 C 6,1 C 70 % 1001,4 hPa 0,0 l/m 0 min 0 min 0 W/m 19,3 km/h (3 Bft) 97,83 %
24.04.2022 05:10 10,2 C 9,4 C 6,1 C 70 % 1001,5 hPa 0,0 l/m 0 min 0 min 0 W/m 19,3 km/h (3 Bft) 97,87 %
24.04.2022 05:12 10,2 C 9,4 C 5,6 C 70 % 1001,5 hPa 0,0 l/m 0 min 0 min 0 W/m 29,0 km/h (5 Bft) 100,00 %
24.04.2022 05:14 10,2 C 9,4 C 5,6 C 70 % 1001,5 hPa 0,0 l/m 0 min 0 min 0 W/m 12,9 km/h (3 Bft) 100,00 %
24.04.2022 05:16 10,1 C 9,4 C 5,6 C 70 % 1001,5 hPa 0,0 l/m 0 min 0 min 0 W/m 12,9 km/h (3 Bft) 97,87 %
24.04.2022 05:18 10,1 C 9,4 C 5,6 C 70 % 1001,5 hPa 0,0 l/m 0 min 0 min 0 W/m 16,1 km/h (3 Bft) 100,00 %
24.04.2022 05:20 10,1 C 9,4 C 5,6 C 70 % 1001,5 hPa 0,0 l/m 0 min 0 min 0 W/m 19,3 km/h (3 Bft) 100,00 %
24.04.2022 05:22 10,1 C 9,4 C 5,6 C 71 % 1001,5 hPa 0,0 l/m 0 min 0 min 0 W/m 12,9 km/h (3 Bft) 100,00 %
24.04.2022 05:24 10,1 C 9,4 C 5,6 C 71 % 1001,5 hPa 0,0 l/m 0 min 0 min 0 W/m 16,1 km/h (3 Bft) 100,00 %
24.04.2022 05:26 10,0 C 9,4 C 5,6 C 71 % 1001,5 hPa 0,0 l/m 0 min 0 min 0 W/m 25,7 km/h (4 Bft) 97,87 %
24.04.2022 05:28 10,0 C 9,4 C 5,6 C 71 % 1001,5 hPa 0,0 l/m 0 min 0 min 0 W/m 16,1 km/h (3 Bft) 100,00 %
24.04.2022 05:30 10,0 C 8,9 C 5,6 C 71 % 1001,5 hPa 0,0 l/m 0 min 0 min 0 W/m 16,1 km/h (3 Bft) 97,83 %
24.04.2022 05:32 9,9 C 8,9 C 5,6 C 71 % 1001,5 hPa 0,0 l/m 0 min 0 min 0 W/m 25,7 km/h (4 Bft) 100,00 %
24.04.2022 05:34 9,9 C 8,9 C 5,6 C 71 % 1001,5 hPa 0,0 l/m 0 min 0 min 0 W/m 19,3 km/h (3 Bft) 100,00 %
24.04.2022 05:36 9,9 C 8,9 C 5,6 C 71 % 1001,5 hPa 0,0 l/m 0 min 0 min 0 W/m 19,3 km/h (3 Bft) 98,18 %
24.04.2022 05:38 9,9 C 8,9 C 5,6 C 71 % 1001,4 hPa 0,0 l/m 0 min 0 min 0 W/m 16,1 km/h (3 Bft) 97,87 %
24.04.2022 05:40 9,9 C 8,9 C 5,6 C 71 % 1001,5 hPa 0,0 l/m 0 min 0 min 0 W/m 19,3 km/h (3 Bft) 97,83 %
24.04.2022 05:42 9,9 C 8,9 C 5,6 C 71 % 1001,4 hPa 0,0 l/m 0 min 0 min 0 W/m 22,5 km/h (4 Bft) 97,37 %
24.04.2022 05:44 9,8 C 8,9 C 5,6 C 71 % 1001,4 hPa 0,0 l/m 0 min 0 min 0 W/m 19,3 km/h (3 Bft) 97,92 %
24.04.2022 05:46 9,8 C 8,9 C 5,6 C 71 % 1001,4 hPa 0,0 l/m 0 min 0 min 0 W/m 12,9 km/h (3 Bft) 97,87 %
24.04.2022 05:48 9,8 C 8,9 C 5,6 C 72 % 1001,4 hPa 0,0 l/m 0 min 0 min 0 W/m 16,1 km/h (3 Bft) 97,87 %
24.04.2022 05:50 9,8 C 8,9 C 5,6 C 72 % 1001,4 hPa 0,0 l/m 0 min 0 min 0 W/m 16,1 km/h (3 Bft) 96,36 %
24.04.2022 05:52 9,7 C 8,9 C 5,6 C 72 % 1001,4 hPa 0,0 l/m 0 min 0 min 0 W/m 22,5 km/h (4 Bft) 94,74 %
24.04.2022 05:54 9,7 C 8,9 C 5,6 C 72 % 1001,4 hPa 0,0 l/m 0 min 0 min 0 W/m 16,1 km/h (3 Bft) 97,83 %
24.04.2022 05:56 9,7 C 8,9 C 5,6 C 72 % 1001,4 hPa 0,0 l/m 0 min 0 min 0 W/m 22,5 km/h (4 Bft) 97,87 %
24.04.2022 05:58 9,7 C 8,9 C 5,6 C 72 % 1001,4 hPa 0,0 l/m 0 min 0 min 0 W/m 19,3 km/h (3 Bft) 97,92 %
24.04.2022 06:00 9,6 C 8,9 C 5,6 C 72 % 1001,4 hPa 0,0 l/m 0 min 0 min 0 W/m 9,7 km/h (2 Bft) 97,87 %
24.04.2022 06:02 9,6 C 8,9 C 5,0 C 72 % 1001,5 hPa 0,0 l/m 0 min 0 min 0 W/m 19,3 km/h (3 Bft) 100,00 %
24.04.2022 06:04 9,6 C 8,9 C 5,0 C 72 % 1001,5 hPa 0,0 l/m 0 min 0 min 0 W/m 16,1 km/h (3 Bft) 94,87 %
24.04.2022 06:08 9,6 C 8,9 C 5,0 C 73 % 1001,5 hPa 0,0 l/m 0 min 0 min 0 W/m 19,3 km/h (3 Bft) 95,70 %
24.04.2022 06:10 9,5 C 8,9 C 5,0 C 73 % 1001,4 hPa 0,0 l/m 0 min 0 min 0 W/m 35,4 km/h (5 Bft) 93,75 %
24.04.2022 06:12 9,5 C 8,9 C 5,0 C 73 % 1001,5 hPa 0,0 l/m 0 min 0 min 0 W/m 19,3 km/h (3 Bft) 95,74 %
24.04.2022 06:14 9,4 C 8,9 C 5,0 C 73 % 1001,5 hPa 0,0 l/m 0 min 0 min 0 W/m 12,9 km/h (3 Bft) 92,59 %
24.04.2022 06:16 9,4 C 8,9 C 5,0 C 73 % 1001,5 hPa 0,0 l/m 0 min 0 min 0 W/m 16,1 km/h (3 Bft) 94,87 %
24.04.2022 06:18 9,4 C 8,9 C 5,0 C 73 % 1001,5 hPa 0,0 l/m 0 min 0 min 0 W/m 22,5 km/h (4 Bft) 95,74 %
24.04.2022 06:20 9,4 C 8,9 C 5,0 C 73 % 1001,6 hPa 0,0 l/m 0 min 0 min 0 W/m 19,3 km/h (3 Bft) 95,74 %
24.04.2022 06:22 9,4 C 8,9 C 5,0 C 73 % 1001,6 hPa 0,0 l/m 0 min 0 min 1 W/m 25,7 km/h (4 Bft) 94,55 %
24.04.2022 06:24 9,4 C 8,9 C 5,0 C 73 % 1001,6 hPa 0,0 l/m 0 min 0 min 5 W/m 16,1 km/h (3 Bft) 97,37 %
24.04.2022 06:26 9,4 C 8,9 C 5,0 C 73 % 1001,6 hPa 0,0 l/m 0 min 0 min 5 W/m 19,3 km/h (3 Bft) 97,92 %
24.04.2022 06:28 9,4 C 8,9 C 5,0 C 73 % 1001,5 hPa 0,0 l/m 0 min 0 min 6 W/m 16,1 km/h (3 Bft) 97,83 %
24.04.2022 06:30 9,4 C 8,9 C 5,0 C 73 % 1001,6 hPa 0,0 l/m 0 min 0 min 7 W/m 12,9 km/h (3 Bft) 38,24 %
24.04.2022 06:32 9,4 C 8,3 C 5,0 C 73 % 1001,6 hPa 0,0 l/m 0 min 0 min 7 W/m 19,3 km/h (3 Bft) 94,55 %
24.04.2022 06:34 9,4 C 8,3 C 5,0 C 73 % 1001,7 hPa 0,0 l/m 0 min 0 min 9 W/m 22,5 km/h (4 Bft) 94,74 %
24.04.2022 06:36 9,4 C 8,3 C 5,0 C 74 % 1001,7 hPa 0,0 l/m 0 min 0 min 10 W/m 19,3 km/h (3 Bft) 95,83 %
24.04.2022 06:38 9,4 C 8,3 C 5,0 C 74 % 1001,7 hPa 0,0 l/m 0 min 0 min 11 W/m 16,1 km/h (3 Bft) 95,74 %
24.04.2022 06:40 9,3 C 8,3 C 5,0 C 74 % 1001,7 hPa 0,0 l/m 0 min 0 min 11 W/m 22,5 km/h (4 Bft) 95,65 %
24.04.2022 06:42 9,3 C 8,3 C 5,0 C 74 % 1001,6 hPa 0,0 l/m 0 min 0 min 12 W/m 32,2 km/h (5 Bft) 93,62 %
24.04.2022 06:44 9,3 C 8,3 C 5,0 C 74 % 1001,8 hPa 0,0 l/m 0 min 0 min 12 W/m 22,5 km/h (4 Bft) 93,62 %
24.04.2022 06:46 9,3 C 8,3 C 5,0 C 74 % 1001,7 hPa 0,0 l/m 0 min 0 min 14 W/m 16,1 km/h (3 Bft) 95,74 %
24.04.2022 06:48 9,3 C 8,3 C 5,0 C 74 % 1001,8 hPa 0,0 l/m 0 min 0 min 14 W/m 22,5 km/h (4 Bft) 94,55 %
24.04.2022 06:50 9,3 C 8,3 C 5,0 C 74 % 1001,8 hPa 0,0 l/m 0 min 0 min 16 W/m 16,1 km/h (3 Bft) 95,65 %
24.04.2022 06:52 9,3 C 8,3 C 5,0 C 74 % 1001,8 hPa 0,0 l/m 0 min 0 min 16 W/m 19,3 km/h (3 Bft) 95,74 %
24.04.2022 06:54 9,3 C 8,3 C 5,0 C 75 % 1001,8 hPa 0,0 l/m 0 min 0 min 18 W/m 16,1 km/h (3 Bft) 94,74 %
24.04.2022 06:56 9,3 C 8,3 C 5,0 C 75 % 1001,9 hPa 0,0 l/m 0 min 0 min 18 W/m 16,1 km/h (3 Bft) 95,83 %
24.04.2022 06:58 9,2 C 8,3 C 5,0 C 75 % 1001,9 hPa 0,0 l/m 0 min 0 min 19 W/m 25,7 km/h (4 Bft) 97,87 %
24.04.2022 07:00 9,2 C 8,3 C 5,0 C 75 % 1001,9 hPa 0,0 l/m 0 min 0 min 21 W/m 19,3 km/h (3 Bft) 98,15 %
24.04.2022 07:02 9,2 C 8,3 C 5,0 C 75 % 1001,9 hPa 0,0 l/m 0 min 0 min 23 W/m 25,7 km/h (4 Bft) 100,00 %
24.04.2022 07:04 9,2 C 8,3 C 5,0 C 75 % 1001,9 hPa 0,0 l/m 0 min 0 min 24 W/m 25,7 km/h (4 Bft) 97,87 %
24.04.2022 07:06 9,2 C 8,3 C 5,0 C 75 % 1001,9 hPa 0,0 l/m 0 min 0 min 25 W/m 16,1 km/h (3 Bft) 100,00 %
24.04.2022 07:08 9,3 C 8,9 C 5,0 C 75 % 1001,9 hPa 0,0 l/m 0 min 0 min 25 W/m 19,3 km/h (3 Bft) 100,00 %
24.04.2022 07:10 9,3 C 8,9 C 5,0 C 75 % 1002,0 hPa 0,0 l/m 0 min 0 min 26 W/m 22,5 km/h (4 Bft) 97,87 %
24.04.2022 07:12 9,3 C 8,9 C 5,0 C 75 % 1001,9 hPa 0,0 l/m 0 min 0 min 25 W/m 19,3 km/h (3 Bft) 100,00 %
24.04.2022 07:14 9,3 C 8,9 C 5,0 C 75 % 1002,0 hPa 0,0 l/m 0 min 0 min 24 W/m 22,5 km/h (4 Bft) 97,87 %
24.04.2022 07:16 9,3 C 8,9 C 5,0 C 75 % 1002,0 hPa 0,0 l/m 0 min 0 min 23 W/m 22,5 km/h (4 Bft) 94,74 %
24.04.2022 07:18 9,3 C 8,9 C 5,0 C 75 % 1002,1 hPa 0,0 l/m 0 min 0 min 24 W/m 25,7 km/h (4 Bft) 97,92 %
24.04.2022 07:20 9,3 C 8,3 C 5,0 C 75 % 1002,1 hPa 0,0 l/m 0 min 0 min 26 W/m 25,7 km/h (4 Bft) 100,00 %
24.04.2022 07:22 9,3 C 8,3 C 5,0 C 75 % 1002,1 hPa 0,0 l/m 0 min 0 min 30 W/m 19,3 km/h (3 Bft) 100,00 %
24.04.2022 07:24 9,3 C 8,9 C 5,0 C 75 % 1002,1 hPa 0,0 l/m 0 min 0 min 32 W/m 48,3 km/h (6 Bft) 100,00 %
24.04.2022 07:26 9,3 C 8,9 C 5,0 C 75 % 1002,1 hPa 0,0 l/m 0 min 0 min 34 W/m 16,1 km/h (3 Bft) 100,00 %
24.04.2022 07:28 9,3 C 8,9 C 5,0 C 75 % 1002,2 hPa 0,0 l/m 0 min 0 min 35 W/m 22,5 km/h (4 Bft) 100,00 %
24.04.2022 07:30 9,3 C 8,9 C 5,0 C 75 % 1002,1 hPa 0,0 l/m 0 min 0 min 38 W/m 19,3 km/h (3 Bft) 100,00 %
24.04.2022 07:32 9,3 C 8,9 C 5,0 C 75 % 1002,2 hPa 0,0 l/m 0 min 0 min 37 W/m 22,5 km/h (4 Bft) 100,00 %
24.04.2022 07:34 9,3 C 8,9 C 5,0 C 75 % 1002,1 hPa 0,0 l/m 0 min 0 min 34 W/m 25,7 km/h (4 Bft) 97,92 %
24.04.2022 07:36 9,3 C 8,9 C 5,0 C 75 % 1002,2 hPa 0,0 l/m 0 min 0 min 33 W/m 22,5 km/h (4 Bft) 100,00 %
24.04.2022 07:38 9,3 C 8,9 C 5,0 C 75 % 1002,2 hPa 0,0 l/m 0 min 0 min 34 W/m 25,7 km/h (4 Bft) 100,00 %
24.04.2022 07:40 9,3 C 8,9 C 5,0 C 75 % 1002,2 hPa 0,0 l/m 0 min 0 min 36 W/m 22,5 km/h (4 Bft) 100,00 %
24.04.2022 07:42 9,3 C 8,9 C 5,0 C 75 % 1002,2 hPa 0,0 l/m 0 min 0 min 37 W/m 29,0 km/h (5 Bft) 100,00 %
24.04.2022 07:44 9,3 C 8,9 C 5,0 C 76 % 1002,3 hPa 0,0 l/m 0 min 0 min 39 W/m 19,3 km/h (3 Bft) 98,18 %
24.04.2022 07:46 9,3 C 8,9 C 5,0 C 76 % 1002,2 hPa 0,0 l/m 0 min 0 min 40 W/m 16,1 km/h (3 Bft) 100,00 %
24.04.2022 07:48 9,3 C 8,9 C 5,0 C 75 % 1002,3 hPa 0,0 l/m 0 min 0 min 38 W/m 32,2 km/h (5 Bft) 100,00 %
24.04.2022 07:50 9,3 C 8,9 C 5,0 C 76 % 1002,2 hPa 0,0 l/m 0 min 0 min 37 W/m 16,1 km/h (3 Bft) 100,00 %
24.04.2022 07:52 9,3 C 8,9 C 5,0 C 76 % 1002,3 hPa 0,0 l/m 0 min 0 min 40 W/m 25,7 km/h (4 Bft) 100,00 %
24.04.2022 07:54 9,3 C 8,9 C 5,0 C 76 % 1002,3 hPa 0,0 l/m 0 min 0 min 43 W/m 16,1 km/h (3 Bft) 100,00 %
24.04.2022 07:56 9,3 C 8,9 C 5,0 C 76 % 1002,3 hPa 0,0 l/m 0 min 0 min 47 W/m 16,1 km/h (3 Bft) 98,18 %
24.04.2022 07:58 9,3 C 8,9 C 5,0 C 76 % 1002,3 hPa 0,0 l/m 0 min 0 min 47 W/m 19,3 km/h (3 Bft) 100,00 %
24.04.2022 08:00 9,3 C 8,9 C 5,0 C 75 % 1002,3 hPa 0,0 l/m 0 min 0 min 47 W/m 25,7 km/h (4 Bft) 100,00 %
24.04.2022 08:02 9,3 C 8,9 C 5,0 C 75 % 1002,3 hPa 0,0 l/m 0 min 0 min 47 W/m 25,7 km/h (4 Bft) 100,00 %
24.04.2022 08:04 9,4 C 8,9 C 5,0 C 75 % 1002,3 hPa 0,0 l/m 0 min 0 min 47 W/m 19,3 km/h (3 Bft) 97,87 %
24.04.2022 08:06 9,4 C 8,9 C 5,0 C 75 % 1002,3 hPa 0,0 l/m 0 min 0 min 48 W/m 25,7 km/h (4 Bft) 100,00 %
24.04.2022 08:08 9,4 C 8,9 C 5,6 C 75 % 1002,4 hPa 0,0 l/m 0 min 0 min 51 W/m 22,5 km/h (4 Bft) 100,00 %
24.04.2022 08:10 9,4 C 8,9 C 5,6 C 75 % 1002,3 hPa 0,0 l/m 0 min 0 min 53 W/m 16,1 km/h (3 Bft) 100,00 %
24.04.2022 08:12 9,4 C 8,9 C 5,6 C 75 % 1002,4 hPa 0,0 l/m 0 min 0 min 54 W/m 22,5 km/h (4 Bft) 95,74 %
24.04.2022 08:14 9,4 C 8,9 C 5,6 C 75 % 1002,4 hPa 0,0 l/m 0 min 0 min 54 W/m 22,5 km/h (4 Bft) 100,00 %
24.04.2022 08:16 9,5 C 9,4 C 5,6 C 75 % 1002,3 hPa 0,0 l/m 0 min 0 min 56 W/m 19,3 km/h (3 Bft) 100,00 %
24.04.2022 08:18 9,5 C 9,4 C 5,6 C 75 % 1002,3 hPa 0,0 l/m 0 min 0 min 60 W/m 16,1 km/h (3 Bft) 100,00 %
24.04.2022 08:20 9,6 C 9,4 C 5,6 C 75 % 1002,3 hPa 0,0 l/m 0 min 0 min 62 W/m 19,3 km/h (3 Bft) 95,74 %
24.04.2022 08:22 9,6 C 9,4 C 5,6 C 75 % 1002,3 hPa 0,0 l/m 0 min 0 min 65 W/m 22,5 km/h (4 Bft) 98,15 %
24.04.2022 08:24 9,7 C 9,4 C 5,6 C 75 % 1002,4 hPa 0,0 l/m 0 min 0 min 69 W/m 19,3 km/h (3 Bft) 92,11 %
24.04.2022 08:26 9,7 C 9,4 C 5,6 C 75 % 1002,3 hPa 0,0 l/m 0 min 0 min 70 W/m 16,1 km/h (3 Bft) 93,75 %
24.04.2022 08:28 9,8 C 10,0 C 6,1 C 75 % 1002,3 hPa 0,0 l/m 0 min 0 min 74 W/m 19,3 km/h (3 Bft) 95,74 %
24.04.2022 08:30 9,9 C 10,0 C 6,1 C 75 % 1002,4 hPa 0,0 l/m 0 min 0 min 73 W/m 35,4 km/h (5 Bft) 96,36 %
24.04.2022 08:32 9,9 C 10,0 C 6,1 C 75 % 1002,4 hPa 0,0 l/m 0 min 0 min 72 W/m 19,3 km/h (3 Bft) 94,74 %
24.04.2022 08:34 10,0 C 10,0 C 6,1 C 74 % 1002,5 hPa 0,0 l/m 0 min 0 min 72 W/m 25,7 km/h (4 Bft) 95,74 %
24.04.2022 08:36 10,1 C 10,0 C 6,1 C 74 % 1002,4 hPa 0,0 l/m 0 min 0 min 129 W/m 16,1 km/h (3 Bft) 95,65 %
24.04.2022 08:38 10,1 C 10,0 C 6,1 C 74 % 1002,5 hPa 0,0 l/m 2 min 0 min 310 W/m 12,9 km/h (3 Bft) 93,62 %
24.04.2022 08:40 10,2 C 10,0 C 6,1 C 74 % 1002,4 hPa 0,0 l/m 2 min 0 min 316 W/m 22,5 km/h (4 Bft) 95,74 %
24.04.2022 08:42 10,3 C 10,0 C 6,1 C 74 % 1002,5 hPa 0,0 l/m 2 min 0 min 317 W/m 22,5 km/h (4 Bft) 93,62 %
24.04.2022 08:44 10,3 C 10,0 C 6,1 C 74 % 1002,5 hPa 0,0 l/m 2 min 0 min 320 W/m 19,3 km/h (3 Bft) 95,83 %
24.04.2022 08:46 10,4 C 10,0 C 6,1 C 73 % 1002,5 hPa 0,0 l/m 2 min 0 min 329 W/m 22,5 km/h (4 Bft) 95,74 %
24.04.2022 08:48 10,4 C 10,6 C 6,1 C 73 % 1002,5 hPa 0,0 l/m 2 min 0 min 336 W/m 16,1 km/h (3 Bft) 96,30 %
24.04.2022 08:50 10,6 C 11,7 C 6,7 C 73 % 1002,5 hPa 0,0 l/m 2 min 0 min 342 W/m 19,3 km/h (3 Bft) 95,74 %
24.04.2022 08:52 10,6 C 12,8 C 6,7 C 73 % 1002,5 hPa 0,0 l/m 2 min 0 min 350 W/m 25,7 km/h (4 Bft) 93,62 %
24.04.2022 08:54 10,7 C 13,9 C 6,7 C 73 % 1002,6 hPa 0,0 l/m 2 min 0 min 357 W/m 22,5 km/h (4 Bft) 97,87 %
24.04.2022 08:56 10,8 C 14,4 C 6,7 C 72 % 1002,6 hPa 0,0 l/m 2 min 0 min 363 W/m 29,0 km/h (5 Bft) 94,74 %
24.04.2022 08:58 10,9 C 15,0 C 6,7 C 72 % 1002,6 hPa 0,0 l/m 2 min 0 min 368 W/m 25,7 km/h (4 Bft) 93,75 %
24.04.2022 09:00 11,1 C 15,6 C 6,7 C 72 % 1002,5 hPa 0,0 l/m 2 min 0 min 375 W/m 16,1 km/h (3 Bft) 95,65 %
24.04.2022 09:02 11,2 C 15,6 C 6,7 C 71 % 1002,5 hPa 0,0 l/m 2 min 0 min 382 W/m 22,5 km/h (4 Bft) 95,74 %
24.04.2022 09:04 11,3 C 15,6 C 6,7 C 71 % 1002,5 hPa 0,0 l/m 2 min 0 min 388 W/m 25,7 km/h (4 Bft) 94,55 %
24.04.2022 09:06 11,4 C 16,1 C 7,2 C 71 % 1002,6 hPa 0,0 l/m 2 min 0 min 396 W/m 25,7 km/h (4 Bft) 100,00 %
24.04.2022 09:08 11,5 C 15,6 C 7,2 C 70 % 1002,6 hPa 0,0 l/m 2 min 0 min 400 W/m 25,7 km/h (4 Bft) 93,62 %
24.04.2022 09:10 11,6 C 15,0 C 7,8 C 70 % 1002,6 hPa 0,0 l/m 2 min 0 min 405 W/m 35,4 km/h (5 Bft) 93,62 %
24.04.2022 09:12 11,6 C 14,4 C 7,8 C 69 % 1002,6 hPa 0,0 l/m 2 min 0 min 410 W/m 25,7 km/h (4 Bft) 95,65 %
24.04.2022 09:14 11,7 C 15,0 C 8,3 C 69 % 1002,6 hPa 0,0 l/m 2 min 0 min 417 W/m 19,3 km/h (3 Bft) 95,74 %
24.04.2022 09:16 11,7 C 15,0 C 8,3 C 69 % 1002,6 hPa 0,0 l/m 2 min 0 min 422 W/m 25,7 km/h (4 Bft) 95,74 %
24.04.2022 09:18 11,8 C 15,6 C 8,9 C 69 % 1002,6 hPa 0,0 l/m 2 min 0 min 429 W/m 19,3 km/h (3 Bft) 95,74 %
24.04.2022 09:20 12,0 C 16,1 C 8,9 C 69 % 1002,6 hPa 0,0 l/m 2 min 0 min 436 W/m 16,1 km/h (3 Bft) 95,74 %
24.04.2022 09:22 12,1 C 16,1 C 9,4 C 69 % 1002,6 hPa 0,0 l/m 2 min 0 min 441 W/m 19,3 km/h (3 Bft) 95,74 %
24.04.2022 09:24 12,2 C 16,1 C 9,4 C 69 % 1002,6 hPa 0,0 l/m 2 min 0 min 447 W/m 22,5 km/h (4 Bft) 95,65 %
24.04.2022 09:26 12,3 C 16,7 C 9,4 C 68 % 1002,6 hPa 0,0 l/m 2 min 0 min 450 W/m 19,3 km/h (3 Bft) 93,62 %
24.04.2022 09:28 12,4 C 16,7 C 10,0 C 68 % 1002,7 hPa 0,0 l/m 2 min 0 min 457 W/m 25,7 km/h (4 Bft) 95,74 %
24.04.2022 09:30 12,6 C 16,7 C 10,0 C 67 % 1002,6 hPa 0,0 l/m 2 min 0 min 463 W/m 22,5 km/h (4 Bft) 95,74 %
24.04.2022 09:32 12,6 C 16,1 C 9,4 C 67 % 1002,6 hPa 0,0 l/m 2 min 0 min 468 W/m 19,3 km/h (3 Bft) 97,87 %
24.04.2022 09:34 12,6 C 16,7 C 9,4 C 67 % 1002,6 hPa 0,0 l/m 2 min 0 min 476 W/m 19,3 km/h (3 Bft) 95,65 %
24.04.2022 09:36 12,6 C 16,7 C 9,4 C 67 % 1002,7 hPa 0,0 l/m 2 min 0 min 480 W/m 38,6 km/h (5 Bft) 95,74 %
24.04.2022 09:38 12,7 C 16,7 C 9,4 C 67 % 1002,6 hPa 0,0 l/m 2 min 0 min 487 W/m 19,3 km/h (3 Bft) 97,87 %
24.04.2022 09:40 12,7 C 16,7 C 8,9 C 67 % 1002,6 hPa 0,0 l/m 2 min 0 min 492 W/m 19,3 km/h (3 Bft) 97,87 %
24.04.2022 09:42 12,8 C 16,7 C 8,9 C 66 % 1002,6 hPa 0,0 l/m 2 min 0 min 497 W/m 41,8 km/h (6 Bft) 100,00 %
24.04.2022 09:44 12,8 C 16,7 C 8,9 C 66 % 1002,6 hPa 0,0 l/m 2 min 0 min 502 W/m 22,5 km/h (4 Bft) 100,00 %
24.04.2022 09:46 12,9 C 17,2 C 8,9 C 66 % 1002,6 hPa 0,0 l/m 2 min 0 min 507 W/m 16,1 km/h (3 Bft) 97,83 %
24.04.2022 09:48 13,0 C 17,2 C 8,9 C 66 % 1002,7 hPa 0,0 l/m 2 min 0 min 513 W/m 29,0 km/h (5 Bft) 100,00 %
24.04.2022 09:50 13,1 C 17,8 C 8,9 C 66 % 1002,7 hPa 0,0 l/m 2 min 0 min 517 W/m 32,2 km/h (5 Bft) 100,00 %
24.04.2022 09:52 13,1 C 17,2 C 8,9 C 65 % 1002,6 hPa 0,0 l/m 2 min 0 min 507 W/m 35,4 km/h (5 Bft) 97,87 %
24.04.2022 09:54 13,1 C 16,7 C 8,3 C 64 % 1002,7 hPa 0,0 l/m 2 min 0 min 517 W/m 41,8 km/h (6 Bft) 100,00 %
24.04.2022 09:56 13,1 C 16,7 C 8,3 C 64 % 1002,6 hPa 0,0 l/m 2 min 0 min 512 W/m 29,0 km/h (5 Bft) 97,87 %
24.04.2022 09:58 13,2 C 17,2 C 8,9 C 65 % 1002,6 hPa 0,0 l/m 0 min 0 min 231 W/m 32,2 km/h (5 Bft) 100,00 %
24.04.2022 10:00 13,2 C 17,2 C 8,9 C 65 % 1002,7 hPa 0,0 l/m 2 min 0 min 287 W/m 22,5 km/h (4 Bft) 100,00 %
24.04.2022 10:02 13,3 C 17,8 C 8,9 C 65 % 1002,6 hPa 0,0 l/m 2 min 0 min 449 W/m 22,5 km/h (4 Bft) 100,00 %
24.04.2022 10:04 13,4 C 17,8 C 8,9 C 65 % 1002,6 hPa 0,0 l/m 0 min 0 min 246 W/m 22,5 km/h (4 Bft) 100,00 %
24.04.2022 10:06 13,6 C 17,8 C 8,9 C 64 % 1002,7 hPa 0,0 l/m 0 min 0 min 183 W/m 16,1 km/h (3 Bft) 100,00 %
24.04.2022 10:08 13,6 C 17,8 C 8,9 C 64 % 1002,6 hPa 0,0 l/m 0 min 0 min 114 W/m 25,7 km/h (4 Bft) 100,00 %
24.04.2022 10:10 13,7 C 17,8 C 9,4 C 64 % 1002,6 hPa 0,0 l/m 2 min 0 min 287 W/m 19,3 km/h (3 Bft) 97,83 %
24.04.2022 10:12 13,8 C 17,2 C 9,4 C 63 % 1002,6 hPa 0,0 l/m 2 min 0 min 301 W/m 38,6 km/h (5 Bft) 100,00 %
24.04.2022 10:14 13,8 C 17,8 C 9,4 C 63 % 1002,7 hPa 0,0 l/m 0 min 0 min 174 W/m 25,7 km/h (4 Bft) 100,00 %
24.04.2022 10:16 13,9 C 18,3 C 9,4 C 64 % 1002,7 hPa 0,0 l/m 2 min 0 min 445 W/m 22,5 km/h (4 Bft) 100,00 %
24.04.2022 10:18 14,1 C 18,9 C 10,0 C 64 % 1002,6 hPa 0,0 l/m 2 min 0 min 411 W/m 22,5 km/h (4 Bft) 100,00 %
24.04.2022 10:20 14,2 C 19,4 C 10,6 C 64 % 1002,8 hPa 0,0 l/m 2 min 0 min 457 W/m 19,3 km/h (3 Bft) 100,00 %
24.04.2022 10:22 14,3 C 18,9 C 10,6 C 63 % 1002,6 hPa 0,0 l/m 2 min 0 min 494 W/m 22,5 km/h (4 Bft) 97,83 %
24.04.2022 10:24 14,3 C 18,9 C 10,6 C 63 % 1002,7 hPa 0,0 l/m 0 min 0 min 247 W/m 16,1 km/h (3 Bft) 100,00 %
24.04.2022 10:26 14,3 C 17,8 C 10,6 C 62 % 1002,7 hPa 0,0 l/m 0 min 0 min 160 W/m 22,5 km/h (4 Bft) 97,87 %
24.04.2022 10:28 14,4 C 18,3 C 11,1 C 62 % 1002,6 hPa 0,0 l/m 0 min 0 min 176 W/m 22,5 km/h (4 Bft) 97,87 %
24.04.2022 10:30 14,5 C 18,3 C 11,1 C 62 % 1002,6 hPa 0,0 l/m 0 min 0 min 176 W/m 19,3 km/h (3 Bft) 95,74 %
24.04.2022 10:32 14,6 C 18,3 C 11,1 C 63 % 1002,7 hPa 0,0 l/m 2 min 0 min 324 W/m 12,9 km/h (3 Bft) 97,87 %
24.04.2022 10:34 14,7 C 18,3 C 11,1 C 62 % 1002,7 hPa 0,0 l/m 2 min 0 min 531 W/m 22,5 km/h (4 Bft) 97,83 %
24.04.2022 10:36 14,7 C 17,8 C 11,7 C 62 % 1002,6 hPa 0,0 l/m 2 min 0 min 531 W/m 19,3 km/h (3 Bft) 97,87 %
24.04.2022 10:38 14,8 C 17,8 C 12,2 C 62 % 1002,7 hPa 0,0 l/m 2 min 0 min 619 W/m 25,7 km/h (4 Bft) 95,74 %
24.04.2022 10:40 14,8 C 17,2 C 12,2 C 62 % 1002,6 hPa 0,0 l/m 2 min 0 min 635 W/m 25,7 km/h (4 Bft) 97,87 %
24.04.2022 10:42 14,8 C 17,2 C 12,2 C 61 % 1002,7 hPa 0,0 l/m 2 min 0 min 641 W/m 38,6 km/h (5 Bft) 97,87 %
24.04.2022 10:44 14,8 C 16,7 C 11,7 C 61 % 1002,6 hPa 0,0 l/m 2 min 0 min 647 W/m 22,5 km/h (4 Bft) 97,87 %
24.04.2022 10:46 14,8 C 16,7 C 11,7 C 61 % 1002,6 hPa 0,0 l/m 2 min 0 min 654 W/m 35,4 km/h (5 Bft) 97,83 %
24.04.2022 10:48 14,8 C 16,7 C 11,1 C 61 % 1002,6 hPa 0,0 l/m 2 min 0 min 659 W/m 22,5 km/h (4 Bft) 97,87 %
24.04.2022 10:50 14,8 C 16,7 C 11,1 C 61 % 1002,6 hPa 0,0 l/m 2 min 0 min 658 W/m 16,1 km/h (3 Bft) 97,87 %
24.04.2022 10:52 14,9 C 17,2 C 11,1 C 61 % 1002,6 hPa 0,0 l/m 2 min 0 min 660 W/m 19,3 km/h (3 Bft) 97,87 %
24.04.2022 10:54 15,0 C 17,8 C 11,1 C 62 % 1002,7 hPa 0,0 l/m 2 min 0 min 673 W/m 16,1 km/h (3 Bft) 97,87 %
24.04.2022 10:56 15,1 C 17,2 C 11,1 C 61 % 1002,6 hPa 0,0 l/m 2 min 0 min 677 W/m 41,8 km/h (6 Bft) 100,00 %
24.04.2022 10:58 15,1 C 16,7 C 11,1 C 61 % 1002,6 hPa 0,0 l/m 2 min 0 min 682 W/m 22,5 km/h (4 Bft) 100,00 %
24.04.2022 11:00 15,2 C 16,7 C 11,1 C 60 % 1002,6 hPa 0,0 l/m 2 min 0 min 687 W/m 25,7 km/h (4 Bft) 100,00 %
24.04.2022 11:02 15,3 C 17,2 C 11,7 C 61 % 1002,7 hPa 0,0 l/m 2 min 0 min 689 W/m 12,9 km/h (3 Bft) 97,96 %
24.04.2022 11:04 15,4 C 17,2 C 11,7 C 61 % 1002,6 hPa 0,0 l/m 2 min 0 min 692 W/m 22,5 km/h (4 Bft) 100,00 %
24.04.2022 11:06 15,4 C 16,7 C 11,7 C 60 % 1002,7 hPa 0,0 l/m 2 min 0 min 696 W/m 22,5 km/h (4 Bft) 100,00 %
24.04.2022 11:08 15,5 C 16,7 C 11,7 C 60 % 1002,7 hPa 0,0 l/m 2 min 0 min 701 W/m 35,4 km/h (5 Bft) 100,00 %
24.04.2022 11:10 15,5 C 16,7 C 11,1 C 59 % 1002,6 hPa 0,0 l/m 2 min 0 min 706 W/m 25,7 km/h (4 Bft) 100,00 %
24.04.2022 11:12 15,5 C 16,1 C 11,1 C 60 % 1002,7 hPa 0,0 l/m 2 min 0 min 709 W/m 38,6 km/h (5 Bft) 100,00 %
24.04.2022 11:14 15,4 C 16,1 C 11,1 C 59 % 1002,7 hPa 0,0 l/m 2 min 0 min 711 W/m 29,0 km/h (5 Bft) 100,00 %
24.04.2022 11:16 15,4 C 16,7 C 11,7 C 60 % 1002,6 hPa 0,0 l/m 2 min 0 min 715 W/m 12,9 km/h (3 Bft) 100,00 %
24.04.2022 11:18 15,6 C 16,7 C 11,7 C 59 % 1002,6 hPa 0,0 l/m 2 min 0 min 719 W/m 25,7 km/h (4 Bft) 100,00 %
24.04.2022 11:20 15,6 C 16,7 C 11,7 C 59 % 1002,6 hPa 0,0 l/m 2 min 0 min 722 W/m 22,5 km/h (4 Bft) 100,00 %
24.04.2022 11:22 15,6 C 17,2 C 11,7 C 59 % 1002,7 hPa 0,0 l/m 2 min 0 min 727 W/m 22,5 km/h (4 Bft) 100,00 %
24.04.2022 11:24 15,7 C 17,2 C 11,7 C 59 % 1002,5 hPa 0,0 l/m 2 min 0 min 729 W/m 25,7 km/h (4 Bft) 100,00 %
24.04.2022 11:26 15,8 C 17,8 C 12,2 C 59 % 1002,6 hPa 0,0 l/m 2 min 0 min 731 W/m 29,0 km/h (5 Bft) 100,00 %
24.04.2022 11:28 15,9 C 17,8 C 12,2 C 58 % 1002,7 hPa 0,0 l/m 2 min 0 min 734 W/m 38,6 km/h (5 Bft) 100,00 %
24.04.2022 11:30 16,0 C 17,8 C 12,2 C 58 % 1002,7 hPa 0,0 l/m 2 min 0 min 737 W/m 38,6 km/h (5 Bft) 100,00 %
24.04.2022 11:32 16,1 C 18,3 C 12,2 C 58 % 1002,6 hPa 0,0 l/m 2 min 0 min 743 W/m 25,7 km/h (4 Bft) 100,00 %
24.04.2022 11:34 16,1 C 18,9 C 12,8 C 58 % 1002,7 hPa 0,0 l/m 2 min 0 min 745 W/m 19,3 km/h (3 Bft) 100,00 %
24.04.2022 11:36 16,2 C 18,9 C 12,8 C 58 % 1002,6 hPa 0,0 l/m 2 min 0 min 750 W/m 16,1 km/h (3 Bft) 100,00 %
24.04.2022 11:38 16,4 C 18,9 C 12,8 C 59 % 1002,7 hPa 0,0 l/m 2 min 0 min 754 W/m 19,3 km/h (3 Bft) 100,00 %
24.04.2022 11:40 16,6 C 18,9 C 13,3 C 58 % 1002,7 hPa 0,0 l/m 2 min 0 min 754 W/m 22,5 km/h (4 Bft) 100,00 %
24.04.2022 11:42 16,7 C 18,9 C 13,3 C 57 % 1002,6 hPa 0,0 l/m 2 min 0 min 758 W/m 25,7 km/h (4 Bft) 100,00 %
24.04.2022 11:44 16,7 C 18,3 C 13,3 C 57 % 1002,7 hPa 0,0 l/m 2 min 0 min 760 W/m 19,3 km/h (3 Bft) 97,87 %
24.04.2022 11:46 16,7 C 18,3 C 13,9 C 57 % 1002,7 hPa 0,0 l/m 2 min 0 min 762 W/m 25,7 km/h (4 Bft) 97,87 %
24.04.2022 11:48 16,8 C 18,3 C 14,4 C 57 % 1002,7 hPa 0,0 l/m 2 min 0 min 766 W/m 25,7 km/h (4 Bft) 97,87 %
24.04.2022 11:50 16,9 C 18,9 C 15,0 C 58 % 1002,7 hPa 0,0 l/m 2 min 0 min 768 W/m 22,5 km/h (4 Bft) 97,87 %
24.04.2022 11:52 17,0 C 18,3 C 14,4 C 56 % 1002,7 hPa 0,0 l/m 2 min 0 min 772 W/m 25,7 km/h (4 Bft) 97,87 %
24.04.2022 11:54 16,9 C 18,9 C 14,4 C 57 % 1002,7 hPa 0,0 l/m 2 min 0 min 777 W/m 22,5 km/h (4 Bft) 97,83 %
24.04.2022 11:56 17,0 C 18,9 C 15,0 C 56 % 1002,8 hPa 0,0 l/m 2 min 0 min 780 W/m 22,5 km/h (4 Bft) 97,87 %
24.04.2022 11:58 17,1 C 18,9 C 15,0 C 56 % 1002,8 hPa 0,0 l/m 2 min 0 min 782 W/m 25,7 km/h (4 Bft) 97,62 %
24.04.2022 12:00 17,2 C 20,0 C 15,0 C 57 % 1002,7 hPa 0,0 l/m 2 min 0 min 783 W/m 19,3 km/h (3 Bft) 97,87 %
24.04.2022 12:02 17,3 C 20,0 C 15,0 C 57 % 1002,8 hPa 0,0 l/m 2 min 0 min 783 W/m 29,0 km/h (5 Bft) 96,00 %
24.04.2022 12:04 17,3 C 19,4 C 15,0 C 55 % 1002,7 hPa 0,0 l/m 2 min 0 min 785 W/m 22,5 km/h (4 Bft) 97,92 %
24.04.2022 12:08 17,4 C 20,6 C 15,0 C 56 % 1002,7 hPa 0,0 l/m 4 min 0 min 789 W/m 19,3 km/h (3 Bft) 97,87 %
24.04.2022 12:10 17,4 C 20,0 C 15,6 C 54 % 1002,7 hPa 0,0 l/m 2 min 0 min 805 W/m 29,0 km/h (5 Bft) 97,87 %
24.04.2022 12:12 17,4 C 20,0 C 15,6 C 55 % 1002,8 hPa 0,0 l/m 2 min 0 min 798 W/m 25,7 km/h (4 Bft) 97,87 %
24.04.2022 12:14 17,4 C 20,0 C 15,6 C 55 % 1002,7 hPa 0,0 l/m 2 min 0 min 801 W/m 22,5 km/h (4 Bft) 97,87 %
24.04.2022 12:16 17,4 C 20,0 C 16,1 C 54 % 1002,7 hPa 0,0 l/m 2 min 0 min 812 W/m 22,5 km/h (4 Bft) 97,83 %
24.04.2022 12:18 17,4 C 20,6 C 15,6 C 55 % 1002,8 hPa 0,0 l/m 2 min 0 min 801 W/m 19,3 km/h (3 Bft) 95,74 %
24.04.2022 12:20 17,5 C 20,6 C 15,6 C 55 % 1002,8 hPa 0,0 l/m 2 min 0 min 803 W/m 16,1 km/h (3 Bft) 95,74 %
24.04.2022 12:22 17,6 C 20,6 C 16,1 C 55 % 1002,8 hPa 0,0 l/m 2 min 0 min 805 W/m 25,7 km/h (4 Bft) 97,87 %
24.04.2022 12:24 17,6 C 20,6 C 16,1 C 54 % 1002,9 hPa 0,0 l/m 2 min 0 min 808 W/m 19,3 km/h (3 Bft) 95,74 %
24.04.2022 12:26 17,7 C 21,1 C 16,7 C 55 % 1002,9 hPa 0,0 l/m 2 min 0 min 814 W/m 22,5 km/h (4 Bft) 97,87 %
24.04.2022 12:28 17,7 C 21,1 C 17,2 C 55 % 1002,9 hPa 0,0 l/m 2 min 0 min 818 W/m 22,5 km/h (4 Bft) 95,65 %
24.04.2022 12:30 17,8 C 21,7 C 17,8 C 55 % 1002,8 hPa 0,0 l/m 2 min 0 min 817 W/m 16,1 km/h (3 Bft) 97,87 %
24.04.2022 12:32 17,8 C 21,7 C 17,8 C 55 % 1002,8 hPa 0,0 l/m 2 min 0 min 819 W/m 25,7 km/h (4 Bft) 100,00 %
24.04.2022 12:34 17,9 C 21,7 C 18,3 C 55 % 1002,9 hPa 0,0 l/m 2 min 0 min 819 W/m 29,0 km/h (5 Bft) 97,87 %
24.04.2022 12:36 18,0 C 21,7 C 18,9 C 55 % 1002,9 hPa 0,0 l/m 2 min 0 min 821 W/m 25,7 km/h (4 Bft) 95,74 %
24.04.2022 12:38 18,1 C 21,1 C 18,9 C 54 % 1002,9 hPa 0,0 l/m 2 min 0 min 822 W/m 29,0 km/h (5 Bft) 97,87 %
24.04.2022 12:40 18,1 C 21,1 C 19,4 C 54 % 1003,0 hPa 0,0 l/m 2 min 0 min 818 W/m 25,7 km/h (4 Bft) 97,83 %
24.04.2022 12:42 18,2 C 21,1 C 19,4 C 53 % 1002,9 hPa 0,0 l/m 2 min 0 min 835 W/m 16,1 km/h (3 Bft) 97,87 %
24.04.2022 12:44 18,3 C 21,1 C 18,9 C 53 % 1002,9 hPa 0,0 l/m 2 min 0 min 826 W/m 25,7 km/h (4 Bft) 97,87 %
24.04.2022 12:46 18,3 C 21,7 C 18,3 C 54 % 1003,0 hPa 0,0 l/m 2 min 0 min 828 W/m 19,3 km/h (3 Bft) 97,87 %
24.04.2022 12:48 18,3 C 21,7 C 17,8 C 53 % 1002,9 hPa 0,0 l/m 2 min 0 min 824 W/m 25,7 km/h (4 Bft) 97,87 %
24.04.2022 12:50 18,3 C 21,1 C 16,1 C 53 % 1002,9 hPa 0,0 l/m 2 min 0 min 824 W/m 19,3 km/h (3 Bft) 97,87 %
24.04.2022 12:52 18,2 C 21,1 C 15,6 C 53 % 1003,0 hPa 0,0 l/m 2 min 0 min 828 W/m 25,7 km/h (4 Bft) 97,83 %
24.04.2022 12:54 18,2 C 21,1 C 15,0 C 54 % 1003,0 hPa 0,0 l/m 2 min 0 min 827 W/m 16,1 km/h (3 Bft) 95,74 %
24.04.2022 12:56 18,3 C 21,1 C 14,4 C 53 % 1003,0 hPa 0,0 l/m 2 min 0 min 835 W/m 32,2 km/h (5 Bft) 97,87 %
24.04.2022 12:58 18,3 C 20,6 C 14,4 C 53 % 1003,0 hPa 0,0 l/m 2 min 0 min 830 W/m 29,0 km/h (5 Bft) 100,00 %
24.04.2022 13:00 18,3 C 21,1 C 14,4 C 53 % 1002,9 hPa 0,0 l/m 2 min 0 min 829 W/m 16,1 km/h (3 Bft) 100,00 %
24.04.2022 13:02 18,3 C 20,6 C 13,9 C 53 % 1003,0 hPa 0,0 l/m 2 min 0 min 842 W/m 38,6 km/h (5 Bft) 100,00 %
24.04.2022 13:04 18,3 C 21,1 C 13,9 C 53 % 1003,0 hPa 0,0 l/m 2 min 0 min 832 W/m 16,1 km/h (3 Bft) 97,96 %
24.04.2022 13:06 18,4 C 21,1 C 13,9 C 53 % 1003,0 hPa 0,0 l/m 2 min 0 min 834 W/m 22,5 km/h (4 Bft) 100,00 %
24.04.2022 13:08 18,4 C 21,1 C 13,9 C 53 % 1003,0 hPa 0,0 l/m 2 min 0 min 830 W/m 19,3 km/h (3 Bft) 100,00 %
24.04.2022 13:10 18,5 C 21,1 C 13,9 C 52 % 1003,0 hPa 0,0 l/m 2 min 0 min 832 W/m 29,0 km/h (5 Bft) 100,00 %
24.04.2022 13:12 18,5 C 21,1 C 13,9 C 52 % 1003,0 hPa 0,0 l/m 2 min 0 min 832 W/m 22,5 km/h (4 Bft) 97,87 %
24.04.2022 13:14 18,5 C 21,7 C 13,9 C 53 % 1002,9 hPa 0,0 l/m 2 min 0 min 831 W/m 22,5 km/h (4 Bft) 100,00 %
24.04.2022 13:16 18,6 C 21,7 C 14,4 C 53 % 1003,0 hPa 0,0 l/m 2 min 0 min 829 W/m 32,2 km/h (5 Bft) 97,83 %
24.04.2022 13:18 18,7 C 21,1 C 14,4 C 52 % 1003,0 hPa 0,0 l/m 2 min 0 min 840 W/m 22,5 km/h (4 Bft) 100,00 %
24.04.2022 13:20 18,7 C 21,7 C 13,9 C 52 % 1003,0 hPa 0,0 l/m 2 min 0 min 832 W/m 19,3 km/h (3 Bft) 100,00 %
24.04.2022 13:22 18,7 C 21,7 C 13,9 C 52 % 1002,9 hPa 0,0 l/m 2 min 0 min 827 W/m 29,0 km/h (5 Bft) 97,87 %
24.04.2022 13:24 18,8 C 22,2 C 14,4 C 52 % 1003,0 hPa 0,0 l/m 2 min 0 min 851 W/m 29,0 km/h (5 Bft) 97,87 %
24.04.2022 13:26 18,9 C 22,2 C 14,4 C 52 % 1003,0 hPa 0,0 l/m 2 min 0 min 854 W/m 29,0 km/h (5 Bft) 100,00 %
24.04.2022 13:28 18,9 C 22,8 C 14,4 C 52 % 1003,0 hPa 0,0 l/m 2 min 0 min 854 W/m 19,3 km/h (3 Bft) 97,83 %
24.04.2022 13:30 19,0 C 22,8 C 14,4 C 52 % 1002,9 hPa 0,0 l/m 2 min 0 min 854 W/m 22,5 km/h (4 Bft) 95,74 %
24.04.2022 13:32 19,1 C 22,8 C 15,0 C 52 % 1002,9 hPa 0,0 l/m 2 min 0 min 861 W/m 19,3 km/h (3 Bft) 97,87 %
24.04.2022 13:34 19,1 C 22,8 C 15,0 C 52 % 1002,9 hPa 0,0 l/m 2 min 0 min 870 W/m 19,3 km/h (3 Bft) 100,00 %
24.04.2022 13:36 19,2 C 22,8 C 15,0 C 52 % 1002,9 hPa 0,0 l/m 2 min 0 min 864 W/m 22,5 km/h (4 Bft) 100,00 %
24.04.2022 13:38 19,2 C 22,8 C 15,6 C 50 % 1002,9 hPa 0,0 l/m 2 min 0 min 861 W/m 16,1 km/h (3 Bft) 95,65 %
24.04.2022 13:40 19,2 C 22,8 C 16,7 C 51 % 1002,8 hPa 0,0 l/m 2 min 0 min 867 W/m 25,7 km/h (4 Bft) 100,00 %
24.04.2022 13:42 19,2 C 22,2 C 16,7 C 50 % 1002,9 hPa 0,0 l/m 2 min 0 min 864 W/m 22,5 km/h (4 Bft) 100,00 %
24.04.2022 13:44 19,2 C 22,8 C 16,7 C 50 % 1002,9 hPa 0,0 l/m 2 min 0 min 860 W/m 19,3 km/h (3 Bft) 100,00 %
24.04.2022 13:46 19,2 C 22,8 C 16,7 C 51 % 1002,9 hPa 0,0 l/m 2 min 0 min 852 W/m 16,1 km/h (3 Bft) 100,00 %
24.04.2022 13:48 19,3 C 22,2 C 16,1 C 50 % 1002,9 hPa 0,0 l/m 2 min 0 min 860 W/m 22,5 km/h (4 Bft) 95,74 %
24.04.2022 13:50 19,3 C 22,8 C 15,6 C 50 % 1002,9 hPa 0,0 l/m 2 min 0 min 860 W/m 22,5 km/h (4 Bft) 100,00 %
24.04.2022 13:52 19,3 C 23,3 C 15,6 C 50 % 1002,9 hPa 0,0 l/m 2 min 0 min 857 W/m 19,3 km/h (3 Bft) 100,00 %
24.04.2022 13:54 19,4 C 23,3 C 15,6 C 50 % 1002,9 hPa 0,0 l/m 2 min 0 min 866 W/m 22,5 km/h (4 Bft) 97,87 %
24.04.2022 13:56 19,4 C 23,3 C 15,6 C 50 % 1002,9 hPa 0,0 l/m 2 min 0 min 866 W/m 16,1 km/h (3 Bft) 100,00 %
24.04.2022 13:58 19,5 C 23,3 C 15,0 C 49 % 1003,0 hPa 0,0 l/m 2 min 0 min 881 W/m 22,5 km/h (4 Bft) 91,84 %
24.04.2022 14:00 19,6 C 23,3 C 15,0 C 49 % 1002,9 hPa 0,0 l/m 2 min 0 min 883 W/m 32,2 km/h (5 Bft) 97,87 %
24.04.2022 14:02 19,5 C 22,8 C 15,0 C 49 % 1002,9 hPa 0,0 l/m 2 min 0 min 875 W/m 22,5 km/h (4 Bft) 97,83 %
24.04.2022 14:04 19,6 C 23,3 C 15,6 C 49 % 1002,9 hPa 0,0 l/m 2 min 0 min 896 W/m 19,3 km/h (3 Bft) 97,62 %
24.04.2022 14:06 19,6 C 22,8 C 15,0 C 49 % 1003,0 hPa 0,0 l/m 2 min 0 min 893 W/m 22,5 km/h (4 Bft) 97,87 %
24.04.2022 14:08 19,6 C 22,8 C 15,0 C 49 % 1002,9 hPa 0,0 l/m 2 min 0 min 889 W/m 12,9 km/h (3 Bft) 95,74 %
24.04.2022 14:10 19,6 C 22,8 C 15,0 C 48 % 1002,9 hPa 0,0 l/m 2 min 0 min 883 W/m 22,5 km/h (4 Bft) 97,87 %
24.04.2022 14:12 19,7 C 23,3 C 15,0 C 49 % 1003,0 hPa 0,0 l/m 2 min 0 min 883 W/m 22,5 km/h (4 Bft) 93,62 %
24.04.2022 14:14 19,8 C 22,8 C 15,0 C 47 % 1002,9 hPa 0,0 l/m 2 min 0 min 903 W/m 19,3 km/h (3 Bft) 97,83 %
24.04.2022 14:16 19,8 C 23,3 C 15,0 C 48 % 1003,0 hPa 0,0 l/m 2 min 0 min 922 W/m 29,0 km/h (5 Bft) 95,74 %
24.04.2022 14:18 19,8 C 23,3 C 15,0 C 49 % 1003,0 hPa 0,0 l/m 2 min 0 min 953 W/m 22,5 km/h (4 Bft) 97,87 %
24.04.2022 14:20 19,7 C 23,3 C 15,6 C 49 % 1003,0 hPa 0,0 l/m 2 min 0 min 949 W/m 22,5 km/h (4 Bft) 95,74 %
24.04.2022 14:22 19,7 C 23,3 C 15,6 C 48 % 1003,0 hPa 0,0 l/m 2 min 0 min 924 W/m 19,3 km/h (3 Bft) 93,62 %
24.04.2022 14:24 19,7 C 22,8 C 15,0 C 49 % 1003,0 hPa 0,0 l/m 2 min 0 min 911 W/m 19,3 km/h (3 Bft) 93,62 %
24.04.2022 14:26 19,6 C 22,8 C 15,0 C 48 % 1003,0 hPa 0,0 l/m 2 min 0 min 897 W/m 22,5 km/h (4 Bft) 93,48 %
24.04.2022 14:28 19,6 C 22,8 C 15,0 C 49 % 1003,1 hPa 0,0 l/m 2 min 0 min 863 W/m 25,7 km/h (4 Bft) 93,62 %
24.04.2022 14:30 19,6 C 22,8 C 15,0 C 47 % 1003,0 hPa 0,0 l/m 2 min 0 min 858 W/m 29,0 km/h (5 Bft) 93,62 %
24.04.2022 14:32 19,6 C 23,3 C 15,0 C 48 % 1003,0 hPa 0,0 l/m 2 min 0 min 860 W/m 22,5 km/h (4 Bft) 91,49 %
24.04.2022 14:34 19,6 C 22,8 C 15,0 C 48 % 1003,0 hPa 0,0 l/m 2 min 0 min 853 W/m 19,3 km/h (3 Bft) 93,62 %
24.04.2022 14:36 19,6 C 22,8 C 15,0 C 48 % 1003,0 hPa 0,0 l/m 2 min 0 min 855 W/m 29,0 km/h (5 Bft) 93,62 %
24.04.2022 14:38 19,6 C 23,3 C 15,0 C 48 % 1003,0 hPa 0,0 l/m 2 min 0 min 870 W/m 19,3 km/h (3 Bft) 91,30 %
24.04.2022 14:40 19,6 C 23,3 C 15,0 C 48 % 1003,0 hPa 0,0 l/m 2 min 0 min 889 W/m 22,5 km/h (4 Bft) 93,62 %
24.04.2022 14:42 19,7 C 23,3 C 15,6 C 49 % 1003,1 hPa 0,0 l/m 2 min 0 min 886 W/m 16,1 km/h (3 Bft) 91,49 %
24.04.2022 14:44 19,7 C 23,3 C 15,6 C 48 % 1003,1 hPa 0,0 l/m 2 min 0 min 853 W/m 35,4 km/h (5 Bft) 93,62 %
24.04.2022 14:46 19,8 C 23,9 C 15,6 C 47 % 1003,0 hPa 0,0 l/m 2 min 0 min 843 W/m 22,5 km/h (4 Bft) 93,62 %
24.04.2022 14:48 19,8 C 23,9 C 15,6 C 47 % 1003,1 hPa 0,0 l/m 2 min 0 min 837 W/m 16,1 km/h (3 Bft) 93,48 %
24.04.2022 14:50 19,8 C 23,3 C 15,0 C 46 % 1003,0 hPa 0,0 l/m 2 min 0 min 826 W/m 32,2 km/h (5 Bft) 93,62 %
24.04.2022 14:52 19,7 C 23,3 C 15,0 C 47 % 1003,0 hPa 0,0 l/m 2 min 0 min 824 W/m 19,3 km/h (3 Bft) 93,62 %
24.04.2022 14:54 19,7 C 23,9 C 15,0 C 48 % 1003,0 hPa 0,0 l/m 2 min 0 min 825 W/m 19,3 km/h (3 Bft) 95,74 %
24.04.2022 14:56 19,7 C 24,4 C 15,6 C 49 % 1003,0 hPa 0,0 l/m 2 min 0 min 835 W/m 22,5 km/h (4 Bft) 95,74 %
24.04.2022 14:58 19,8 C 24,4 C 15,6 C 49 % 1003,0 hPa 0,0 l/m 2 min 0 min 845 W/m 19,3 km/h (3 Bft) 98,00 %
24.04.2022 15:00 19,9 C 24,4 C 15,6 C 46 % 1003,0 hPa 0,0 l/m 2 min 0 min 850 W/m 19,3 km/h (3 Bft) 97,83 %
24.04.2022 15:02 19,8 C 23,3 C 15,6 C 46 % 1003,1 hPa 0,0 l/m 2 min 0 min 823 W/m 32,2 km/h (5 Bft) 96,00 %
24.04.2022 15:04 19,8 C 23,3 C 15,0 C 46 % 1003,1 hPa 0,0 l/m 2 min 0 min 813 W/m 22,5 km/h (4 Bft) 95,74 %
24.04.2022 15:06 19,7 C 23,3 C 15,0 C 46 % 1003,0 hPa 0,0 l/m 2 min 0 min 795 W/m 22,5 km/h (4 Bft) 97,87 %
24.04.2022 15:08 19,7 C 23,3 C 15,0 C 46 % 1003,0 hPa 0,0 l/m 2 min 0 min 791 W/m 12,9 km/h (3 Bft) 100,00 %
24.04.2022 15:10 19,8 C 23,9 C 15,0 C 48 % 1003,1 hPa 0,0 l/m 2 min 0 min 818 W/m 12,9 km/h (3 Bft) 97,56 %
24.04.2022 15:12 19,8 C 23,9 C 15,0 C 47 % 1003,0 hPa 0,0 l/m 2 min 0 min 858 W/m 12,9 km/h (3 Bft) 97,83 %
24.04.2022 15:14 19,9 C 23,9 C 15,6 C 48 % 1003,0 hPa 0,0 l/m 2 min 0 min 909 W/m 19,3 km/h (3 Bft) 97,87 %
24.04.2022 15:16 19,8 C 22,8 C 15,6 C 48 % 1003,1 hPa 0,0 l/m 2 min 0 min 898 W/m 32,2 km/h (5 Bft) 97,87 %
24.04.2022 15:18 19,6 C 20,6 C 15,0 C 47 % 1003,1 hPa 0,0 l/m 0 min 0 min 345 W/m 22,5 km/h (4 Bft) 97,87 %
24.04.2022 15:20 19,3 C 19,4 C 14,4 C 48 % 1003,1 hPa 0,0 l/m 0 min 0 min 166 W/m 29,0 km/h (5 Bft) 100,00 %
24.04.2022 15:22 19,1 C 18,9 C 14,4 C 48 % 1003,1 hPa 0,0 l/m 0 min 0 min 162 W/m 12,9 km/h (3 Bft) 100,00 %
24.04.2022 15:24 18,9 C 18,9 C 13,9 C 49 % 1003,1 hPa 0,0 l/m 0 min 0 min 186 W/m 25,7 km/h (4 Bft) 100,00 %
24.04.2022 15:26 18,7 C 20,6 C 13,9 C 50 % 1003,1 hPa 0,0 l/m 2 min 0 min 514 W/m 19,3 km/h (3 Bft) 100,00 %
24.04.2022 15:28 18,7 C 22,2 C 14,4 C 51 % 1003,1 hPa 0,0 l/m 2 min 0 min 791 W/m 25,7 km/h (4 Bft) 100,00 %
24.04.2022 15:30 18,8 C 22,2 C 14,4 C 49 % 1003,1 hPa 0,0 l/m 2 min 0 min 774 W/m 29,0 km/h (5 Bft) 100,00 %
24.04.2022 15:32 18,9 C 22,8 C 15,0 C 50 % 1003,0 hPa 0,0 l/m 2 min 0 min 779 W/m 32,2 km/h (5 Bft) 100,00 %
24.04.2022 15:34 19,0 C 22,2 C 15,0 C 49 % 1003,1 hPa 0,0 l/m 2 min 0 min 772 W/m 25,7 km/h (4 Bft) 100,00 %
24.04.2022 15:36 19,1 C 22,2 C 15,0 C 49 % 1003,2 hPa 0,0 l/m 2 min 0 min 764 W/m 22,5 km/h (4 Bft) 100,00 %
24.04.2022 15:38 19,1 C 22,8 C 15,0 C 49 % 1003,1 hPa 0,0 l/m 2 min 0 min 753 W/m 19,3 km/h (3 Bft) 100,00 %
24.04.2022 15:40 19,1 C 23,3 C 15,0 C 48 % 1003,2 hPa 0,0 l/m 2 min 0 min 767 W/m 35,4 km/h (5 Bft) 100,00 %
24.04.2022 15:42 19,1 C 22,8 C 15,0 C 48 % 1003,1 hPa 0,0 l/m 2 min 0 min 763 W/m 38,6 km/h (5 Bft) 100,00 %
24.04.2022 15:44 19,1 C 22,8 C 15,0 C 49 % 1003,2 hPa 0,0 l/m 2 min 0 min 750 W/m 29,0 km/h (5 Bft) 100,00 %
24.04.2022 15:46 19,2 C 23,3 C 15,0 C 48 % 1003,2 hPa 0,0 l/m 2 min 0 min 737 W/m 25,7 km/h (4 Bft) 100,00 %
24.04.2022 15:48 19,2 C 22,8 C 15,0 C 48 % 1003,2 hPa 0,0 l/m 2 min 0 min 733 W/m 29,0 km/h (5 Bft) 100,00 %
24.04.2022 15:50 19,3 C 23,3 C 15,0 C 48 % 1003,2 hPa 0,0 l/m 2 min 0 min 728 W/m 16,1 km/h (3 Bft) 100,00 %
24.04.2022 15:52 19,3 C 23,9 C 15,0 C 48 % 1003,3 hPa 0,0 l/m 2 min 0 min 724 W/m 16,1 km/h (3 Bft) 100,00 %
24.04.2022 15:54 19,3 C 22,8 C 15,0 C 47 % 1003,3 hPa 0,0 l/m 2 min 0 min 721 W/m 22,5 km/h (4 Bft) 100,00 %
24.04.2022 15:56 19,3 C 23,3 C 15,0 C 47 % 1003,3 hPa 0,0 l/m 2 min 0 min 722 W/m 16,1 km/h (3 Bft) 100,00 %
24.04.2022 15:58 19,3 C 23,3 C 15,0 C 47 % 1003,2 hPa 0,0 l/m 2 min 0 min 720 W/m 25,7 km/h (4 Bft) 100,00 %
24.04.2022 16:00 19,3 C 24,4 C 15,0 C 47 % 1003,2 hPa 0,0 l/m 2 min 0 min 711 W/m 22,5 km/h (4 Bft) 100,00 %
24.04.2022 16:02 19,4 C 25,0 C 15,6 C 47 % 1003,2 hPa 0,0 l/m 2 min 0 min 707 W/m 25,7 km/h (4 Bft) 100,00 %
24.04.2022 16:04 19,5 C 25,0 C 15,0 C 47 % 1003,2 hPa 0,0 l/m 2 min 0 min 706 W/m 22,5 km/h (4 Bft) 100,00 %
24.04.2022 16:06 19,6 C 25,6 C 15,6 C 47 % 1003,2 hPa 0,0 l/m 2 min 0 min 702 W/m 16,1 km/h (3 Bft) 100,00 %
24.04.2022 16:08 19,7 C 25,6 C 15,6 C 48 % 1003,2 hPa 0,0 l/m 2 min 0 min 700 W/m 16,1 km/h (3 Bft) 100,00 %
24.04.2022 16:10 19,7 C 25,6 C 15,6 C 46 % 1003,2 hPa 0,0 l/m 2 min 0 min 704 W/m 22,5 km/h (4 Bft) 100,00 %
24.04.2022 16:12 19,7 C 25,6 C 15,6 C 47 % 1003,3 hPa 0,0 l/m 2 min 0 min 721 W/m 25,7 km/h (4 Bft) 97,87 %
24.04.2022 16:14 19,7 C 25,6 C 15,6 C 47 % 1003,2 hPa 0,0 l/m 2 min 0 min 679 W/m 16,1 km/h (3 Bft) 100,00 %
24.04.2022 16:16 19,7 C 23,9 C 15,6 C 46 % 1003,2 hPa 0,0 l/m 2 min 0 min 678 W/m 19,3 km/h (3 Bft) 100,00 %
24.04.2022 16:18 19,7 C 24,4 C 15,6 C 47 % 1003,3 hPa 0,0 l/m 2 min 0 min 693 W/m 16,1 km/h (3 Bft) 97,87 %
24.04.2022 16:20 19,6 C 23,3 C 15,6 C 47 % 1003,3 hPa 0,0 l/m 2 min 0 min 662 W/m 22,5 km/h (4 Bft) 95,65 %
24.04.2022 16:22 19,5 C 21,7 C 15,0 C 47 % 1003,3 hPa 0,0 l/m 0 min 0 min 285 W/m 25,7 km/h (4 Bft) 100,00 %
24.04.2022 16:24 19,3 C 21,1 C 14,4 C 46 % 1003,3 hPa 0,0 l/m 0 min 0 min 155 W/m 22,5 km/h (4 Bft) 97,87 %
24.04.2022 16:26 19,2 C 22,8 C 15,0 C 47 % 1003,3 hPa 0,0 l/m 2 min 0 min 497 W/m 25,7 km/h (4 Bft) 100,00 %
24.04.2022 16:28 19,1 C 23,3 C 15,0 C 47 % 1003,2 hPa 0,0 l/m 2 min 0 min 685 W/m 19,3 km/h (3 Bft) 95,74 %
24.04.2022 16:30 19,1 C 23,9 C 15,0 C 48 % 1003,3 hPa 0,0 l/m 2 min 0 min 671 W/m 22,5 km/h (4 Bft) 97,87 %
24.04.2022 16:32 19,1 C 24,4 C 15,6 C 48 % 1003,3 hPa 0,0 l/m 2 min 0 min 664 W/m 12,9 km/h (3 Bft) 97,83 %
24.04.2022 16:34 19,2 C 25,6 C 16,1 C 47 % 1003,3 hPa 0,0 l/m 2 min 0 min 657 W/m 22,5 km/h (4 Bft) 97,87 %
24.04.2022 16:36 19,2 C 23,3 C 15,6 C 46 % 1003,3 hPa 0,0 l/m 2 min 0 min 649 W/m 22,5 km/h (4 Bft) 97,87 %
24.04.2022 16:38 19,1 C 22,2 C 15,0 C 46 % 1003,3 hPa 0,0 l/m 2 min 0 min 649 W/m 16,1 km/h (3 Bft) 97,87 %
24.04.2022 16:40 19,0 C 22,8 C 15,0 C 47 % 1003,3 hPa 0,0 l/m 2 min 0 min 315 W/m 16,1 km/h (3 Bft) 97,87 %
24.04.2022 16:42 18,9 C 23,9 C 15,6 C 48 % 1003,3 hPa 0,0 l/m 2 min 0 min 420 W/m 19,3 km/h (3 Bft) 95,74 %
24.04.2022 16:44 18,9 C 23,9 C 15,6 C 48 % 1003,3 hPa 0,0 l/m 2 min 0 min 593 W/m 12,9 km/h (3 Bft) 97,83 %
24.04.2022 16:46 19,0 C 23,9 C 15,6 C 47 % 1003,3 hPa 0,0 l/m 2 min 0 min 642 W/m 16,1 km/h (3 Bft) 100,00 %
24.04.2022 16:48 19,1 C 24,4 C 15,6 C 47 % 1003,3 hPa 0,0 l/m 2 min 0 min 656 W/m 12,9 km/h (3 Bft) 96,83 %
24.04.2022 16:50 19,2 C 25,0 C 16,1 C 47 % 1003,3 hPa 0,0 l/m 2 min 0 min 662 W/m 19,3 km/h (3 Bft) 97,87 %
24.04.2022 16:52 19,3 C 25,6 C 16,1 C 47 % 1003,4 hPa 0,0 l/m 2 min 0 min 661 W/m 19,3 km/h (3 Bft) 95,65 %
24.04.2022 16:54 19,4 C 25,6 C 16,1 C 47 % 1003,4 hPa 0,0 l/m 2 min 0 min 633 W/m 12,9 km/h (3 Bft) 97,87 %
24.04.2022 16:56 19,6 C 25,6 C 16,1 C 48 % 1003,4 hPa 0,0 l/m 2 min 0 min 623 W/m 12,9 km/h (3 Bft) 97,87 %
24.04.2022 16:58 19,6 C 23,9 C 16,1 C 46 % 1003,5 hPa 0,0 l/m 2 min 0 min 600 W/m 16,1 km/h (3 Bft) 97,87 %
24.04.2022 17:00 19,5 C 22,2 C 15,6 C 46 % 1003,4 hPa 0,0 l/m 0 min 0 min 201 W/m 25,7 km/h (4 Bft) 95,74 %
24.04.2022 17:02 19,3 C 21,1 C 15,0 C 46 % 1003,5 hPa 0,0 l/m 0 min 0 min 149 W/m 16,1 km/h (3 Bft) 92,68 %
24.04.2022 17:04 19,1 C 20,0 C 15,0 C 47 % 1003,5 hPa 0,0 l/m 0 min 0 min 146 W/m 22,5 km/h (4 Bft) 96,00 %
24.04.2022 17:06 18,7 C 18,3 C 14,4 C 45 % 1003,5 hPa 0,0 l/m 0 min 0 min 128 W/m 29,0 km/h (5 Bft) 95,65 %
24.04.2022 17:08 18,5 C 17,8 C 13,9 C 46 % 1003,6 hPa 0,0 l/m 0 min 0 min 124 W/m 19,3 km/h (3 Bft) 95,74 %
24.04.2022 17:10 18,3 C 17,8 C 13,9 C 47 % 1003,6 hPa 0,0 l/m 0 min 0 min 123 W/m 16,1 km/h (3 Bft) 97,87 %
24.04.2022 17:12 18,2 C 17,8 C 13,3 C 47 % 1003,6 hPa 0,0 l/m 0 min 0 min 123 W/m 22,5 km/h (4 Bft) 93,62 %
24.04.2022 17:14 18,1 C 17,2 C 13,3 C 47 % 1003,7 hPa 0,0 l/m 0 min 0 min 120 W/m 12,9 km/h (3 Bft) 93,62 %
24.04.2022 17:16 17,9 C 17,2 C 13,3 C 47 % 1003,7 hPa 0,0 l/m 0 min 0 min 121 W/m 16,1 km/h (3 Bft) 95,74 %
24.04.2022 17:18 17,8 C 17,2 C 13,3 C 49 % 1003,7 hPa 0,0 l/m 0 min 0 min 124 W/m 12,9 km/h (3 Bft) 95,65 %
24.04.2022 17:20 17,7 C 17,2 C 13,3 C 49 % 1003,7 hPa 0,0 l/m 0 min 0 min 123 W/m 16,1 km/h (3 Bft) 95,74 %
24.04.2022 17:22 17,7 C 17,2 C 13,3 C 50 % 1003,7 hPa 0,0 l/m 0 min 0 min 116 W/m 16,1 km/h (3 Bft) 95,74 %
24.04.2022 17:24 17,6 C 17,2 C 13,3 C 49 % 1003,7 hPa 0,0 l/m 0 min 0 min 117 W/m 19,3 km/h (3 Bft) 95,74 %
24.04.2022 17:26 17,6 C 17,2 C 13,3 C 49 % 1003,8 hPa 0,0 l/m 0 min 0 min 130 W/m 22,5 km/h (4 Bft) 95,74 %
24.04.2022 17:28 17,5 C 17,2 C 13,3 C 50 % 1003,8 hPa 0,0 l/m 0 min 0 min 141 W/m 19,3 km/h (3 Bft) 95,74 %
24.04.2022 17:30 17,5 C 17,2 C 13,3 C 50 % 1003,7 hPa 0,0 l/m 0 min 0 min 143 W/m 16,1 km/h (3 Bft) 93,48 %
24.04.2022 17:32 17,4 C 17,2 C 13,3 C 50 % 1003,8 hPa 0,0 l/m 0 min 0 min 150 W/m 19,3 km/h (3 Bft) 91,49 %
24.04.2022 17:34 17,4 C 17,8 C 13,3 C 49 % 1003,8 hPa 0,0 l/m 0 min 0 min 164 W/m 16,1 km/h (3 Bft) 95,74 %
24.04.2022 17:36 17,5 C 17,8 C 13,3 C 50 % 1003,8 hPa 0,0 l/m 0 min 0 min 173 W/m 9,7 km/h (2 Bft) 93,62 %
24.04.2022 17:38 17,5 C 17,8 C 13,3 C 50 % 1003,8 hPa 0,0 l/m 0 min 0 min 174 W/m 19,3 km/h (3 Bft) 95,74 %
24.04.2022 17:40 17,5 C 18,3 C 13,3 C 49 % 1003,8 hPa 0,0 l/m 0 min 0 min 193 W/m 19,3 km/h (3 Bft) 95,74 %
24.04.2022 17:42 17,6 C 20,0 C 13,9 C 50 % 1003,8 hPa 0,0 l/m 2 min 0 min 374 W/m 12,9 km/h (3 Bft) 95,65 %
24.04.2022 17:44 17,7 C 21,1 C 14,4 C 49 % 1003,8 hPa 0,0 l/m 2 min 0 min 431 W/m 32,2 km/h (5 Bft) 95,74 %
24.04.2022 17:46 17,8 C 20,0 C 14,4 C 49 % 1003,7 hPa 0,0 l/m 2 min 0 min 259 W/m 19,3 km/h (3 Bft) 93,62 %
24.04.2022 17:48 17,8 C 19,4 C 13,9 C 48 % 1003,8 hPa 0,0 l/m 0 min 0 min 165 W/m 16,1 km/h (3 Bft) 97,87 %
24.04.2022 17:50 17,8 C 18,9 C 13,9 C 49 % 1003,8 hPa 0,0 l/m 0 min 0 min 163 W/m 22,5 km/h (4 Bft) 95,74 %
24.04.2022 17:52 17,8 C 18,3 C 13,9 C 49 % 1003,8 hPa 0,0 l/m 0 min 0 min 159 W/m 19,3 km/h (3 Bft) 97,87 %
24.04.2022 17:54 17,7 C 18,3 C 13,9 C 49 % 1003,8 hPa 0,0 l/m 0 min 0 min 158 W/m 22,5 km/h (4 Bft) 97,83 %
24.04.2022 17:56 17,7 C 20,0 C 13,9 C 50 % 1003,8 hPa 0,0 l/m 2 min 0 min 222 W/m 12,9 km/h (3 Bft) 100,00 %
24.04.2022 17:58 17,8 C 21,1 C 13,9 C 50 % 1003,7 hPa 0,0 l/m 2 min 0 min 413 W/m 16,1 km/h (3 Bft) 100,00 %
24.04.2022 18:00 17,9 C 21,7 C 14,4 C 50 % 1003,8 hPa 0,0 l/m 2 min 0 min 405 W/m 19,3 km/h (3 Bft) 97,87 %
24.04.2022 18:02 18,1 C 22,8 C 15,0 C 49 % 1003,8 hPa 0,0 l/m 2 min 0 min 412 W/m 16,1 km/h (3 Bft) 100,00 %
24.04.2022 18:04 18,2 C 23,3 C 15,0 C 49 % 1003,8 hPa 0,0 l/m 2 min 0 min 416 W/m 16,1 km/h (3 Bft) 100,00 %
24.04.2022 18:08 18,3 C 23,3 C 15,0 C 49 % 1003,8 hPa 0,0 l/m 4 min 0 min 414 W/m 22,5 km/h (4 Bft) 100,00 %
24.04.2022 18:10 18,5 C 23,3 C 15,0 C 49 % 1003,8 hPa 0,0 l/m 2 min 0 min 411 W/m 22,5 km/h (4 Bft) 100,00 %
24.04.2022 18:12 18,6 C 23,3 C 15,0 C 48 % 1003,8 hPa 0,0 l/m 2 min 0 min 415 W/m 16,1 km/h (3 Bft) 100,00 %
24.04.2022 18:14 18,8 C 23,3 C 15,6 C 49 % 1003,9 hPa 0,0 l/m 2 min 0 min 407 W/m 12,9 km/h (3 Bft) 100,00 %
24.04.2022 18:16 18,9 C 23,9 C 15,6 C 49 % 1003,9 hPa 0,0 l/m 2 min 0 min 393 W/m 16,1 km/h (3 Bft) 100,00 %
24.04.2022 18:18 18,9 C 23,9 C 15,6 C 48 % 1003,9 hPa 0,0 l/m 2 min 0 min 387 W/m 16,1 km/h (3 Bft) 100,00 %
24.04.2022 18:20 18,9 C 24,4 C 15,6 C 48 % 1004,0 hPa 0,0 l/m 2 min 0 min 373 W/m 16,1 km/h (3 Bft) 100,00 %
24.04.2022 18:22 18,9 C 23,3 C 15,6 C 47 % 1004,0 hPa 0,0 l/m 2 min 0 min 355 W/m 25,7 km/h (4 Bft) 97,87 %
24.04.2022 18:24 18,7 C 22,8 C 15,0 C 47 % 1004,0 hPa 0,0 l/m 2 min 0 min 335 W/m 19,3 km/h (3 Bft) 100,00 %
24.04.2022 18:26 18,7 C 22,8 C 15,0 C 48 % 1004,0 hPa 0,0 l/m 2 min 0 min 329 W/m 19,3 km/h (3 Bft) 100,00 %
24.04.2022 18:28 18,6 C 22,8 C 15,0 C 49 % 1004,0 hPa 0,0 l/m 2 min 0 min 326 W/m 12,9 km/h (3 Bft) 97,83 %
24.04.2022 18:30 18,6 C 23,3 C 15,0 C 49 % 1004,1 hPa 0,0 l/m 2 min 0 min 325 W/m 12,9 km/h (3 Bft) 100,00 %
24.04.2022 18:32 18,6 C 22,8 C 15,0 C 49 % 1004,1 hPa 0,0 l/m 2 min 0 min 318 W/m 25,7 km/h (4 Bft) 91,49 %
24.04.2022 18:34 18,6 C 22,2 C 14,4 C 49 % 1004,1 hPa 0,0 l/m 2 min 0 min 309 W/m 19,3 km/h (3 Bft) 100,00 %
24.04.2022 18:36 18,5 C 22,2 C 14,4 C 48 % 1004,1 hPa 0,0 l/m 2 min 0 min 304 W/m 22,5 km/h (4 Bft) 97,87 %
24.04.2022 18:38 18,4 C 21,1 C 13,9 C 49 % 1004,2 hPa 0,0 l/m 2 min 0 min 287 W/m 16,1 km/h (3 Bft) 100,00 %
24.04.2022 18:40 18,2 C 20,0 C 13,9 C 50 % 1004,2 hPa 0,0 l/m 2 min 0 min 288 W/m 16,1 km/h (3 Bft) 95,65 %
24.04.2022 18:42 18,2 C 19,4 C 13,9 C 50 % 1004,2 hPa 0,0 l/m 2 min 0 min 278 W/m 16,1 km/h (3 Bft) 97,87 %
24.04.2022 18:44 18,1 C 18,9 C 13,3 C 50 % 1004,1 hPa 0,0 l/m 2 min 0 min 267 W/m 22,5 km/h (4 Bft) 97,87 %
24.04.2022 18:46 18,0 C 18,3 C 13,3 C 50 % 1004,1 hPa 0,0 l/m 2 min 0 min 256 W/m 12,9 km/h (3 Bft) 97,87 %
24.04.2022 18:48 17,9 C 18,3 C 13,3 C 50 % 1004,2 hPa 0,0 l/m 2 min 0 min 248 W/m 19,3 km/h (3 Bft) 97,87 %
24.04.2022 18:50 17,8 C 17,8 C 13,3 C 50 % 1004,2 hPa 0,0 l/m 2 min 0 min 238 W/m 22,5 km/h (4 Bft) 97,87 %
24.04.2022 18:52 17,8 C 17,2 C 13,3 C 50 % 1004,2 hPa 0,0 l/m 2 min 0 min 224 W/m 19,3 km/h (3 Bft) 95,65 %
24.04.2022 18:54 17,7 C 17,2 C 13,3 C 50 % 1004,1 hPa 0,0 l/m 2 min 0 min 216 W/m 22,5 km/h (4 Bft) 97,87 %
24.04.2022 18:56 17,7 C 17,2 C 13,3 C 50 % 1004,2 hPa 0,0 l/m 2 min 0 min 153 W/m 19,3 km/h (3 Bft) 97,87 %
24.04.2022 18:58 17,7 C 17,2 C 13,3 C 50 % 1004,2 hPa 0,0 l/m 0 min 0 min 88 W/m 19,3 km/h (3 Bft) 97,87 %
24.04.2022 19:00 17,6 C 17,2 C 12,8 C 50 % 1004,2 hPa 0,0 l/m 0 min 0 min 84 W/m 19,3 km/h (3 Bft) 97,87 %
24.04.2022 19:02 17,5 C 17,2 C 12,8 C 50 % 1004,1 hPa 0,0 l/m 0 min 0 min 85 W/m 12,9 km/h (3 Bft) 97,87 %
24.04.2022 19:04 17,4 C 17,2 C 12,8 C 50 % 1004,2 hPa 0,0 l/m 0 min 0 min 88 W/m 16,1 km/h (3 Bft) 97,83 %
24.04.2022 19:06 17,3 C 16,7 C 12,8 C 50 % 1004,2 hPa 0,0 l/m 0 min 0 min 90 W/m 16,1 km/h (3 Bft) 95,74 %
24.04.2022 19:08 17,3 C 16,7 C 12,8 C 50 % 1004,2 hPa 0,0 l/m 0 min 0 min 90 W/m 16,1 km/h (3 Bft) 93,62 %
24.04.2022 19:10 17,3 C 16,7 C 12,8 C 51 % 1004,2 hPa 0,0 l/m 0 min 0 min 90 W/m 16,1 km/h (3 Bft) 97,87 %
24.04.2022 19:12 17,3 C 17,2 C 12,8 C 51 % 1004,1 hPa 0,0 l/m 0 min 0 min 88 W/m 6,4 km/h (2 Bft) 97,87 %
24.04.2022 19:14 17,2 C 17,2 C 12,8 C 51 % 1004,1 hPa 0,0 l/m 0 min 0 min 85 W/m 9,7 km/h (2 Bft) 97,87 %
24.04.2022 19:16 17,2 C 16,7 C 12,8 C 51 % 1004,1 hPa 0,0 l/m 0 min 0 min 83 W/m 19,3 km/h (3 Bft) 100,00 %
24.04.2022 19:18 17,2 C 16,7 C 12,8 C 51 % 1004,2 hPa 0,0 l/m 0 min 0 min 77 W/m 22,5 km/h (4 Bft) 100,00 %
24.04.2022 19:20 17,1 C 16,7 C 12,8 C 50 % 1004,2 hPa 0,0 l/m 0 min 0 min 76 W/m 16,1 km/h (3 Bft) 100,00 %
24.04.2022 19:22 17,1 C 16,7 C 12,8 C 51 % 1004,2 hPa 0,0 l/m 0 min 0 min 77 W/m 16,1 km/h (3 Bft) 100,00 %
24.04.2022 19:24 17,1 C 16,7 C 12,8 C 51 % 1004,2 hPa 0,0 l/m 0 min 0 min 82 W/m 16,1 km/h (3 Bft) 100,00 %
24.04.2022 19:26 17,0 C 16,7 C 12,8 C 52 % 1004,2 hPa 0,0 l/m 0 min 0 min 84 W/m 12,9 km/h (3 Bft) 100,00 %
24.04.2022 19:28 17,0 C 16,7 C 12,8 C 51 % 1004,2 hPa 0,0 l/m 0 min 0 min 83 W/m 16,1 km/h (3 Bft) 100,00 %
24.04.2022 19:30 16,9 C 16,7 C 12,2 C 52 % 1004,3 hPa 0,0 l/m 0 min 0 min 79 W/m 25,7 km/h (4 Bft) 100,00 %
24.04.2022 19:32 16,9 C 16,1 C 12,2 C 51 % 1004,3 hPa 0,0 l/m 0 min 0 min 78 W/m 22,5 km/h (4 Bft) 100,00 %
24.04.2022 19:34 16,8 C 16,1 C 12,2 C 51 % 1004,3 hPa 0,0 l/m 0 min 0 min 74 W/m 9,7 km/h (2 Bft) 100,00 %
24.04.2022 19:36 16,8 C 16,1 C 12,2 C 51 % 1004,4 hPa 0,0 l/m 0 min 0 min 72 W/m 22,5 km/h (4 Bft) 97,87 %
24.04.2022 19:38 16,7 C 16,1 C 12,2 C 51 % 1004,4 hPa 0,0 l/m 0 min 0 min 72 W/m 9,7 km/h (2 Bft) 97,83 %
24.04.2022 19:40 16,7 C 16,1 C 12,2 C 52 % 1004,4 hPa 0,0 l/m 0 min 0 min 72 W/m 12,9 km/h (3 Bft) 100,00 %
24.04.2022 19:42 16,7 C 16,1 C 12,2 C 52 % 1004,4 hPa 0,0 l/m 0 min 0 min 70 W/m 9,7 km/h (2 Bft) 100,00 %
24.04.2022 19:44 16,7 C 16,1 C 12,2 C 52 % 1004,4 hPa 0,0 l/m 0 min 0 min 69 W/m 12,9 km/h (3 Bft) 100,00 %
24.04.2022 19:46 16,6 C 16,1 C 12,2 C 51 % 1004,4 hPa 0,0 l/m 2 min 0 min 72 W/m 12,9 km/h (3 Bft) 97,87 %
24.04.2022 19:48 16,6 C 16,1 C 12,2 C 52 % 1004,5 hPa 0,0 l/m 2 min 0 min 76 W/m 16,1 km/h (3 Bft) 93,62 %
24.04.2022 19:50 16,6 C 16,1 C 12,2 C 52 % 1004,4 hPa 0,0 l/m 2 min 0 min 79 W/m 16,1 km/h (3 Bft) 95,65 %
24.04.2022 19:52 16,6 C 16,1 C 12,2 C 53 % 1004,5 hPa 0,0 l/m 2 min 0 min 79 W/m 12,9 km/h (3 Bft) 95,74 %
24.04.2022 19:54 16,6 C 16,1 C 12,2 C 53 % 1004,5 hPa 0,0 l/m 2 min 0 min 77 W/m 12,9 km/h (3 Bft) 95,74 %
24.04.2022 19:56 16,6 C 16,1 C 12,2 C 53 % 1004,5 hPa 0,0 l/m 2 min 0 min 73 W/m 9,7 km/h (2 Bft) 95,74 %
24.04.2022 19:58 16,5 C 16,1 C 12,2 C 53 % 1004,6 hPa 0,0 l/m 2 min 0 min 71 W/m 12,9 km/h (3 Bft) 95,74 %
24.04.2022 20:00 16,5 C 16,1 C 12,2 C 53 % 1004,6 hPa 0,0 l/m 2 min 0 min 66 W/m 12,9 km/h (3 Bft) 93,62 %
24.04.2022 20:02 16,4 C 16,1 C 12,2 C 53 % 1004,6 hPa 0,0 l/m 2 min 0 min 62 W/m 12,9 km/h (3 Bft) 95,65 %
24.04.2022 20:04 16,4 C 16,1 C 12,2 C 53 % 1004,6 hPa 0,0 l/m 2 min 0 min 62 W/m 12,9 km/h (3 Bft) 95,74 %
24.04.2022 20:06 16,4 C 15,6 C 12,2 C 53 % 1004,6 hPa 0,0 l/m 2 min 0 min 61 W/m 16,1 km/h (3 Bft) 93,62 %
24.04.2022 20:08 16,4 C 15,6 C 12,2 C 53 % 1004,6 hPa 0,0 l/m 2 min 0 min 57 W/m 9,7 km/h (2 Bft) 95,74 %
24.04.2022 20:10 16,4 C 15,6 C 11,7 C 54 % 1004,6 hPa 0,0 l/m 2 min 0 min 53 W/m 12,9 km/h (3 Bft) 95,74 %
24.04.2022 20:12 16,3 C 15,6 C 11,7 C 53 % 1004,6 hPa 0,0 l/m 2 min 0 min 48 W/m 16,1 km/h (3 Bft) 95,74 %
24.04.2022 20:14 16,3 C 15,6 C 11,7 C 53 % 1004,6 hPa 0,0 l/m 2 min 0 min 45 W/m 12,9 km/h (3 Bft) 93,48 %
24.04.2022 20:16 16,2 C 15,6 C 11,7 C 54 % 1004,7 hPa 0,0 l/m 2 min 0 min 41 W/m 16,1 km/h (3 Bft) 96,23 %
24.04.2022 20:18 16,2 C 15,0 C 11,7 C 54 % 1004,7 hPa 0,0 l/m 2 min 0 min 34 W/m 16,1 km/h (3 Bft) 93,62 %
24.04.2022 20:20 16,1 C 15,0 C 11,7 C 54 % 1004,7 hPa 0,0 l/m 2 min 0 min 27 W/m 19,3 km/h (3 Bft) 93,62 %
24.04.2022 20:22 16,0 C 15,0 C 11,1 C 55 % 1004,7 hPa 0,0 l/m 2 min 0 min 22 W/m 16,1 km/h (3 Bft) 95,74 %
24.04.2022 20:24 15,9 C 15,0 C 11,1 C 55 % 1004,8 hPa 0,0 l/m 0 min 0 min 19 W/m 16,1 km/h (3 Bft) 95,65 %
24.04.2022 20:26 15,8 C 14,4 C 11,1 C 55 % 1004,8 hPa 0,0 l/m 0 min 0 min 16 W/m 12,9 km/h (3 Bft) 95,74 %
24.04.2022 20:28 15,8 C 14,4 C 11,1 C 56 % 1004,8 hPa 0,0 l/m 0 min 0 min 14 W/m 6,4 km/h (2 Bft) 97,87 %
24.04.2022 20:30 15,7 C 14,4 C 11,1 C 56 % 1004,8 hPa 0,0 l/m 0 min 0 min 12 W/m 9,7 km/h (2 Bft) 100,00 %
24.04.2022 20:32 15,6 C 14,4 C 10,6 C 56 % 1004,9 hPa 0,0 l/m 0 min 0 min 11 W/m 16,1 km/h (3 Bft) 100,00 %
24.04.2022 20:34 15,4 C 14,4 C 10,6 C 56 % 1005,0 hPa 0,0 l/m 0 min 0 min 9 W/m 22,5 km/h (4 Bft) 100,00 %
24.04.2022 20:36 15,3 C 13,9 C 10,6 C 57 % 1004,9 hPa 0,0 l/m 0 min 0 min 8 W/m 9,7 km/h (2 Bft) 97,87 %
24.04.2022 20:38 15,2 C 13,9 C 10,6 C 57 % 1005,0 hPa 0,0 l/m 0 min 0 min 7 W/m 16,1 km/h (3 Bft) 100,00 %
24.04.2022 20:40 15,1 C 13,9 C 10,6 C 57 % 1005,1 hPa 0,0 l/m 0 min 0 min 6 W/m 19,3 km/h (3 Bft) 97,87 %
24.04.2022 20:42 15,1 C 13,9 C 10,6 C 57 % 1005,1 hPa 0,0 l/m 0 min 0 min 5 W/m 19,3 km/h (3 Bft) 95,74 %
24.04.2022 20:44 15,0 C 13,9 C 10,6 C 58 % 1005,1 hPa 0,0 l/m 0 min 0 min 5 W/m 6,4 km/h (2 Bft) 97,87 %
24.04.2022 20:46 14,9 C 13,9 C 10,0 C 58 % 1005,2 hPa 0,0 l/m 0 min 0 min 3 W/m 6,4 km/h (2 Bft) 97,87 %
24.04.2022 20:48 14,8 C 13,9 C 10,0 C 58 % 1005,2 hPa 0,0 l/m 0 min 0 min 0 W/m 6,4 km/h (2 Bft) 97,87 %
24.04.2022 20:50 14,8 C 13,9 C 10,0 C 58 % 1005,2 hPa 0,0 l/m 0 min 0 min 0 W/m 6,4 km/h (2 Bft) 97,83 %
24.04.2022 20:52 14,7 C 13,9 C 10,0 C 59 % 1005,3 hPa 0,0 l/m 0 min 0 min 0 W/m 9,7 km/h (2 Bft) 97,87 %
24.04.2022 20:54 14,7 C 13,3 C 10,0 C 59 % 1005,3 hPa 0,0 l/m 0 min 0 min 0 W/m 12,9 km/h (3 Bft) 97,87 %
24.04.2022 20:56 14,6 C 13,3 C 10,0 C 60 % 1005,2 hPa 0,0 l/m 0 min 0 min 0 W/m 12,9 km/h (3 Bft) 97,87 %
24.04.2022 20:58 14,6 C 13,3 C 10,0 C 61 % 1005,3 hPa 0,0 l/m 0 min 0 min 0 W/m 12,9 km/h (3 Bft) 97,87 %
24.04.2022 21:00 14,4 C 13,3 C 10,0 C 60 % 1005,4 hPa 0,0 l/m 0 min 0 min 0 W/m 16,1 km/h (3 Bft) 97,87 %
24.04.2022 21:02 14,4 C 13,3 C 10,0 C 60 % 1005,4 hPa 0,0 l/m 0 min 0 min 0 W/m 12,9 km/h (3 Bft) 97,83 %
24.04.2022 21:04 14,3 C 13,3 C 10,0 C 60 % 1005,4 hPa 0,0 l/m 0 min 0 min 0 W/m 6,4 km/h (2 Bft) 97,87 %
24.04.2022 21:06 14,3 C 13,3 C 10,0 C 61 % 1005,5 hPa 0,0 l/m 0 min 0 min 0 W/m 9,7 km/h (2 Bft) 97,87 %
24.04.2022 21:08 14,3 C 13,3 C 10,0 C 61 % 1005,5 hPa 0,0 l/m 0 min 0 min 0 W/m 16,1 km/h (3 Bft) 97,87 %
24.04.2022 21:10 14,3 C 13,3 C 10,0 C 61 % 1005,6 hPa 0,0 l/m 0 min 0 min 0 W/m 12,9 km/h (3 Bft) 97,87 %
24.04.2022 21:12 14,3 C 13,3 C 10,0 C 61 % 1005,6 hPa 0,0 l/m 0 min 0 min 0 W/m 9,7 km/h (2 Bft) 97,83 %
24.04.2022 21:14 14,3 C 13,3 C 9,4 C 61 % 1005,6 hPa 0,0 l/m 0 min 0 min 0 W/m 9,7 km/h (2 Bft) 100,00 %
24.04.2022 21:16 14,3 C 13,3 C 9,4 C 61 % 1005,6 hPa 0,0 l/m 0 min 0 min 0 W/m 16,1 km/h (3 Bft) 97,87 %
24.04.2022 21:18 14,3 C 13,3 C 9,4 C 61 % 1005,7 hPa 0,0 l/m 0 min 0 min 0 W/m 9,7 km/h (2 Bft) 100,00 %
24.04.2022 21:20 14,2 C 13,3 C 9,4 C 61 % 1005,7 hPa 0,0 l/m 0 min 0 min 0 W/m 12,9 km/h (3 Bft) 100,00 %
24.04.2022 21:22 14,2 C 12,8 C 9,4 C 61 % 1005,8 hPa 0,0 l/m 0 min 0 min 0 W/m 6,4 km/h (2 Bft) 100,00 %
24.04.2022 21:24 14,1 C 12,8 C 9,4 C 62 % 1005,8 hPa 0,0 l/m 0 min 0 min 0 W/m 6,4 km/h (2 Bft) 100,00 %
24.04.2022 21:26 14,1 C 12,8 C 9,4 C 62 % 1005,9 hPa 0,0 l/m 0 min 0 min 0 W/m 3,2 km/h (1 Bft) 97,87 %
24.04.2022 21:28 14,1 C 12,8 C 9,4 C 62 % 1005,9 hPa 0,0 l/m 0 min 0 min 0 W/m 12,9 km/h (3 Bft) 97,87 %
24.04.2022 21:30 14,0 C 12,8 C 9,4 C 62 % 1005,9 hPa 0,0 l/m 0 min 0 min 0 W/m 6,4 km/h (2 Bft) 100,00 %
24.04.2022 21:32 14,0 C 12,8 C 9,4 C 62 % 1005,9 hPa 0,0 l/m 0 min 0 min 0 W/m 12,9 km/h (3 Bft) 100,00 %
24.04.2022 21:34 13,9 C 12,8 C 9,4 C 62 % 1006,0 hPa 0,0 l/m 0 min 0 min 0 W/m 9,7 km/h (2 Bft) 100,00 %
24.04.2022 21:36 13,9 C 12,8 C 9,4 C 62 % 1006,0 hPa 0,0 l/m 0 min 0 min 0 W/m 6,4 km/h (2 Bft) 100,00 %
24.04.2022 21:38 13,9 C 12,8 C 9,4 C 62 % 1006,1 hPa 0,0 l/m 0 min 0 min 0 W/m 12,9 km/h (3 Bft) 97,87 %
24.04.2022 21:40 13,9 C 13,3 C 9,4 C 62 % 1006,0 hPa 0,0 l/m 0 min 0 min 0 W/m 12,9 km/h (3 Bft) 100,00 %
24.04.2022 21:42 13,9 C 13,3 C 9,4 C 62 % 1006,1 hPa 0,0 l/m 0 min 0 min 0 W/m 9,7 km/h (2 Bft) 100,00 %
24.04.2022 21:44 13,9 C 13,3 C 9,4 C 62 % 1006,1 hPa 0,0 l/m 0 min 0 min 0 W/m 12,9 km/h (3 Bft) 100,00 %
24.04.2022 21:46 13,9 C 13,3 C 9,4 C 62 % 1006,2 hPa 0,0 l/m 0 min 0 min 0 W/m 12,9 km/h (3 Bft) 100,00 %
24.04.2022 21:48 13,9 C 13,3 C 9,4 C 62 % 1006,2 hPa 0,0 l/m 0 min 0 min 0 W/m 12,9 km/h (3 Bft) 95,65 %
24.04.2022 21:50 13,9 C 13,3 C 9,4 C 62 % 1006,1 hPa 0,0 l/m 0 min 0 min 0 W/m 6,4 km/h (2 Bft) 100,00 %
24.04.2022 21:52 13,9 C 13,3 C 9,4 C 62 % 1006,2 hPa 0,0 l/m 0 min 0 min 0 W/m 12,9 km/h (3 Bft) 100,00 %
24.04.2022 21:54 13,9 C 12,8 C 9,4 C 62 % 1006,2 hPa 0,0 l/m 0 min 0 min 0 W/m 6,4 km/h (2 Bft) 100,00 %
24.04.2022 21:56 13,8 C 12,8 C 9,4 C 62 % 1006,2 hPa 0,0 l/m 0 min 0 min 0 W/m 9,7 km/h (2 Bft) 97,87 %
24.04.2022 21:58 13,8 C 12,8 C 9,4 C 62 % 1006,3 hPa 0,0 l/m 0 min 0 min 0 W/m 9,7 km/h (2 Bft) 97,87 %
24.04.2022 22:00 13,8 C 12,8 C 9,4 C 63 % 1006,3 hPa 0,0 l/m 0 min 0 min 0 W/m 9,7 km/h (2 Bft) 100,00 %
24.04.2022 22:02 13,7 C 12,8 C 9,4 C 63 % 1006,3 hPa 0,0 l/m 0 min 0 min 0 W/m 9,7 km/h (2 Bft) 95,92 %
24.04.2022 22:04 13,7 C 12,8 C 9,4 C 63 % 1006,3 hPa 0,0 l/m 0 min 0 min 0 W/m 16,1 km/h (3 Bft) 97,87 %
24.04.2022 22:06 13,6 C 12,8 C 8,9 C 63 % 1006,3 hPa 0,0 l/m 0 min 0 min 0 W/m 9,7 km/h (2 Bft) 97,87 %
24.04.2022 22:08 13,6 C 12,8 C 8,9 C 63 % 1006,3 hPa 0,0 l/m 0 min 0 min 0 W/m 12,9 km/h (3 Bft) 97,87 %
24.04.2022 22:10 13,6 C 12,8 C 8,9 C 63 % 1006,3 hPa 0,0 l/m 0 min 0 min 0 W/m 9,7 km/h (2 Bft) 97,83 %
24.04.2022 22:12 13,5 C 12,2 C 8,9 C 63 % 1006,3 hPa 0,0 l/m 0 min 0 min 0 W/m 9,7 km/h (2 Bft) 97,87 %
24.04.2022 22:14 13,5 C 12,8 C 8,9 C 63 % 1006,4 hPa 0,0 l/m 0 min 0 min 0 W/m 16,1 km/h (3 Bft) 97,87 %
24.04.2022 22:16 13,4 C 12,2 C 8,9 C 64 % 1006,4 hPa 0,0 l/m 0 min 0 min 0 W/m 22,5 km/h (4 Bft) 97,87 %
24.04.2022 22:18 13,4 C 12,2 C 8,9 C 64 % 1006,4 hPa 0,0 l/m 0 min 0 min 0 W/m 12,9 km/h (3 Bft) 95,74 %
24.04.2022 22:20 13,3 C 12,2 C 8,9 C 64 % 1006,4 hPa 0,0 l/m 0 min 0 min 0 W/m 12,9 km/h (3 Bft) 95,74 %
24.04.2022 22:22 13,3 C 12,2 C 8,9 C 64 % 1006,4 hPa 0,0 l/m 0 min 0 min 0 W/m 12,9 km/h (3 Bft) 97,83 %
24.04.2022 22:24 13,2 C 12,2 C 8,9 C 64 % 1006,4 hPa 0,0 l/m 0 min 0 min 0 W/m 16,1 km/h (3 Bft) 97,87 %
24.04.2022 22:26 13,2 C 12,2 C 8,9 C 64 % 1006,5 hPa 0,0 l/m 0 min 0 min 0 W/m 12,9 km/h (3 Bft) 97,87 %
24.04.2022 22:28 13,2 C 12,2 C 8,9 C 65 % 1006,5 hPa 0,0 l/m 0 min 0 min 0 W/m 19,3 km/h (3 Bft) 97,87 %
24.04.2022 22:30 13,2 C 12,2 C 8,9 C 65 % 1006,5 hPa 0,0 l/m 0 min 0 min 0 W/m 19,3 km/h (3 Bft) 95,74 %
24.04.2022 22:32 13,1 C 12,2 C 8,9 C 65 % 1006,5 hPa 0,0 l/m 0 min 0 min 0 W/m 6,4 km/h (2 Bft) 95,74 %
24.04.2022 22:34 13,1 C 12,2 C 8,9 C 65 % 1006,6 hPa 0,0 l/m 0 min 0 min 0 W/m 16,1 km/h (3 Bft) 95,74 %
24.04.2022 22:36 13,1 C 12,2 C 8,9 C 65 % 1006,5 hPa 0,0 l/m 0 min 0 min 0 W/m 9,7 km/h (2 Bft) 95,74 %
24.04.2022 22:38 13,1 C 12,2 C 8,9 C 65 % 1006,6 hPa 0,0 l/m 0 min 0 min 0 W/m 9,7 km/h (2 Bft) 97,87 %
24.04.2022 22:40 13,1 C 12,2 C 8,9 C 65 % 1006,7 hPa 0,0 l/m 0 min 0 min 0 W/m 9,7 km/h (2 Bft) 93,62 %
24.04.2022 22:42 13,1 C 12,2 C 8,9 C 66 % 1006,7 hPa 0,0 l/m 0 min 0 min 0 W/m 9,7 km/h (2 Bft) 95,74 %
24.04.2022 22:44 13,1 C 12,2 C 8,9 C 65 % 1006,7 hPa 0,0 l/m 0 min 0 min 0 W/m 22,5 km/h (4 Bft) 100,00 %
24.04.2022 22:46 13,0 C 12,2 C 8,9 C 66 % 1006,7 hPa 0,0 l/m 0 min 0 min 0 W/m 6,4 km/h (2 Bft) 95,74 %
24.04.2022 22:48 13,0 C 12,2 C 8,9 C 66 % 1006,7 hPa 0,0 l/m 0 min 0 min 0 W/m 9,7 km/h (2 Bft) 95,74 %
24.04.2022 22:50 13,0 C 12,2 C 8,9 C 66 % 1006,7 hPa 0,0 l/m 0 min 0 min 0 W/m 16,1 km/h (3 Bft) 93,62 %
24.04.2022 22:52 13,0 C 12,2 C 8,9 C 66 % 1006,7 hPa 0,0 l/m 0 min 0 min 0 W/m 16,1 km/h (3 Bft) 95,74 %
24.04.2022 22:54 13,0 C 12,2 C 8,9 C 66 % 1006,7 hPa 0,0 l/m 0 min 0 min 0 W/m 19,3 km/h (3 Bft) 95,74 %
24.04.2022 22:56 13,0 C 12,2 C 8,9 C 66 % 1006,7 hPa 0,0 l/m 0 min 0 min 0 W/m 16,1 km/h (3 Bft) 95,65 %
24.04.2022 22:58 13,0 C 12,2 C 8,9 C 66 % 1006,7 hPa 0,0 l/m 0 min 0 min 0 W/m 9,7 km/h (2 Bft) 97,87 %
24.04.2022 23:00 13,0 C 12,2 C 8,9 C 66 % 1006,7 hPa 0,0 l/m 0 min 0 min 0 W/m 12,9 km/h (3 Bft) 95,74 %
24.04.2022 23:02 12,9 C 12,2 C 8,9 C 66 % 1006,7 hPa 0,0 l/m 0 min 0 min 0 W/m 9,7 km/h (2 Bft) 97,87 %
24.04.2022 23:04 12,9 C 12,2 C 8,9 C 66 % 1006,7 hPa 0,0 l/m 0 min 0 min 0 W/m 9,7 km/h (2 Bft) 100,00 %
24.04.2022 23:06 12,9 C 12,2 C 8,9 C 66 % 1006,7 hPa 0,0 l/m 0 min 0 min 0 W/m 6,4 km/h (2 Bft) 97,87 %
24.04.2022 23:08 12,9 C 12,2 C 8,9 C 66 % 1006,7 hPa 0,0 l/m 0 min 0 min 0 W/m 12,9 km/h (3 Bft) 97,83 %
24.04.2022 23:10 12,8 C 12,2 C 8,3 C 66 % 1006,8 hPa 0,0 l/m 0 min 0 min 0 W/m 9,7 km/h (2 Bft) 97,87 %
24.04.2022 23:12 12,8 C 12,2 C 8,9 C 66 % 1006,8 hPa 0,0 l/m 0 min 0 min 0 W/m 6,4 km/h (2 Bft) 97,87 %
24.04.2022 23:14 12,8 C 12,2 C 8,3 C 66 % 1006,8 hPa 0,0 l/m 0 min 0 min 0 W/m 12,9 km/h (3 Bft) 97,87 %
24.04.2022 23:16 12,8 C 12,2 C 8,3 C 66 % 1006,8 hPa 0,0 l/m 0 min 0 min 0 W/m 9,7 km/h (2 Bft) 95,74 %
24.04.2022 23:18 12,8 C 12,2 C 8,3 C 66 % 1006,8 hPa 0,0 l/m 0 min 0 min 0 W/m 12,9 km/h (3 Bft) 97,87 %
24.04.2022 23:20 12,8 C 12,2 C 8,3 C 67 % 1006,8 hPa 0,0 l/m 0 min 0 min 0 W/m 9,7 km/h (2 Bft) 97,83 %
24.04.2022 23:22 12,7 C 12,2 C 8,3 C 67 % 1006,8 hPa 0,0 l/m 0 min 0 min 0 W/m 16,1 km/h (3 Bft) 97,87 %
24.04.2022 23:24 12,7 C 11,7 C 8,3 C 67 % 1006,8 hPa 0,0 l/m 0 min 0 min 0 W/m 6,4 km/h (2 Bft) 97,87 %
24.04.2022 23:26 12,7 C 11,7 C 8,3 C 67 % 1006,8 hPa 0,0 l/m 0 min 0 min 0 W/m 9,7 km/h (2 Bft) 95,74 %
24.04.2022 23:28 12,7 C 11,7 C 8,3 C 67 % 1006,8 hPa 0,0 l/m 0 min 0 min 0 W/m 3,2 km/h (1 Bft) 97,87 %
24.04.2022 23:30 12,7 C 11,7 C 8,3 C 67 % 1006,8 hPa 0,0 l/m 0 min 0 min 0 W/m 9,7 km/h (2 Bft) 97,83 %
24.04.2022 23:32 12,6 C 11,7 C 8,3 C 67 % 1006,9 hPa 0,0 l/m 0 min 0 min 0 W/m 19,3 km/h (3 Bft) 97,92 %
24.04.2022 23:34 12,6 C 11,7 C 8,3 C 67 % 1006,9 hPa 0,0 l/m 0 min 0 min 0 W/m 9,7 km/h (2 Bft) 95,74 %
24.04.2022 23:36 12,6 C 11,7 C 8,3 C 67 % 1006,9 hPa 0,0 l/m 0 min 0 min 0 W/m 19,3 km/h (3 Bft) 97,87 %
24.04.2022 23:38 12,6 C 11,7 C 8,3 C 67 % 1006,9 hPa 0,0 l/m 0 min 0 min 0 W/m 9,7 km/h (2 Bft) 100,00 %
24.04.2022 23:40 12,5 C 11,7 C 8,3 C 67 % 1006,9 hPa 0,0 l/m 0 min 0 min 0 W/m 12,9 km/h (3 Bft) 100,00 %
24.04.2022 23:42 12,4 C 11,7 C 7,8 C 67 % 1006,9 hPa 0,0 l/m 0 min 0 min 0 W/m 16,1 km/h (3 Bft) 100,00 %
24.04.2022 23:44 12,4 C 11,7 C 7,8 C 67 % 1006,9 hPa 0,0 l/m 0 min 0 min 0 W/m 6,4 km/h (2 Bft) 100,00 %
24.04.2022 23:46 12,4 C 11,7 C 7,8 C 68 % 1006,9 hPa 0,0 l/m 0 min 0 min 0 W/m 9,7 km/h (2 Bft) 97,87 %
24.04.2022 23:48 12,4 C 11,7 C 7,8 C 68 % 1006,9 hPa 0,0 l/m 0 min 0 min 0 W/m 9,7 km/h (2 Bft) 100,00 %
24.04.2022 23:50 12,3 C 11,7 C 7,8 C 68 % 1006,9 hPa 0,0 l/m 0 min 0 min 0 W/m 9,7 km/h (2 Bft) 97,87 %
24.04.2022 23:52 12,3 C 11,7 C 7,8 C 68 % 1006,9 hPa 0,0 l/m 0 min 2 min 0 W/m 16,1 km/h (3 Bft) 100,00 %
24.04.2022 23:54 12,3 C 11,1 C 7,8 C 68 % 1007,0 hPa 0,0 l/m 0 min 0 min 0 W/m 19,3 km/h (3 Bft) 100,00 %
24.04.2022 23:56 12,3 C 11,1 C 7,8 C 69 % 1006,9 hPa 0,0 l/m 0 min 0 min 0 W/m 12,9 km/h (3 Bft) 100,00 %
24.04.2022 23:58 12,2 C 11,1 C 7,8 C 69 % 1006,9 hPa 0,0 l/m 0 min 0 min 0 W/m 12,9 km/h (3 Bft) 97,87 %
_ Min-Zeit 06:58 06:32 06:02 17:06 03:50 - - - - 00:20 06:30
Minimum _ 9,2 C 8,3 C 5,0 C 45 % 1001,4 hPa - - - - 3,2 km/h (1 Bft) 38,24 %
_ Max-Zeit 15:00 16:06 12:40 07:44 23:54 00:00 12:08 23:52 14:18 07:24 00:16
Maximum _ 19,9 C 25,6 C 19,4 C 76 % 1007,0 hPa 0,0 l/m 4 min 2 min 953 W/m 48,3 km/h
O-NO (6 Bft)
100,00 %
Durchschnitt _ 14,5 C 15,4 C 10,4 C 60 % 1003,2 hPa #0,0 l/m #9:38 h #2 min. 435 W/m 17,8 km/h (3 Bft) 97,58 %
© 2022 W. Hausmann